FIN199 EFHK-KIAD

Flight info

Callsign FIN199
Flight time 8h 42m
Altitude 38000
Route ADIVO Y365 POGOK DCT RUNGA N872 XILAN DCT ARS N623 BEDLA P609 VATEX/N0377F120 P609 NEDZA Z132 ULMUG M125 ZOL/N0485F380 P600 KLONN DCT OVDAN/N0450F240 P600 LESNI/N0413F180 P600 ADN/N0478F380 DCT GOMUP/M084F390 DCT 5830N02000W 59N030W 5830N04000W 5730N05000W DCT ENNSO/N0487F400 N776B MT DCT REEDO DCT ART DCT SYR J59 PSB WAYNZ1
Aircraft A359/H-SDE2E3GHIJ3J4J5LM1ORWXY/LB1D1

Departure

Time 2026-04-24 23:38
Airport Helsinki Vantaa Airport (EFHK)

Arrival

Time 2026-04-25 08:20
Airport Washington Dulles International Airport (KIAD)
Time Latitude Longitude Altitude Speed Heading
2026-04-24 22:39 60.31346 24.96345 170 ft 0 kts 47°
2026-04-24 23:20 60.31337 24.96327 169 ft 3 kts 44°
2026-04-24 23:21 60.31320 24.96297 169 ft 3 kts 34°
2026-04-24 23:21 60.31301 24.96274 169 ft 3 kts 17°
2026-04-24 23:21 60.31281 24.96269 169 ft 3 kts 337°
2026-04-24 23:21 60.31273 24.96277 169 ft 0 kts 317°
2026-04-24 23:26 60.31283 24.96258 187 ft 7 kts 317°
2026-04-24 23:26 60.31307 24.96176 169 ft 7 kts 268°
2026-04-24 23:26 60.31265 24.96060 169 ft 12 kts 227°
2026-04-24 23:27 60.31223 24.95954 169 ft 6 kts 247°
2026-04-24 23:27 60.31225 24.95886 169 ft 6 kts 283°
2026-04-24 23:27 60.31233 24.95765 169 ft 9 kts 261°
2026-04-24 23:27 60.31197 24.95670 169 ft 9 kts 227°
2026-04-24 23:28 60.31162 24.95565 169 ft 8 kts 261°
2026-04-24 23:28 60.31190 24.95471 169 ft 8 kts 317°
2026-04-24 23:28 60.31237 24.95385 169 ft 10 kts 317°
2026-04-24 23:28 60.31291 24.95287 169 ft 11 kts 317°
2026-04-24 23:29 60.31350 24.95176 169 ft 12 kts 317°
2026-04-24 23:29 60.31413 24.95052 170 ft 13 kts 312°
2026-04-24 23:29 60.31455 24.94973 172 ft 5 kts 339°
2026-04-24 23:29 60.31484 24.94990 173 ft 7 kts 31°
2026-04-24 23:30 60.31546 24.95116 174 ft 14 kts 46°
2026-04-24 23:30 60.31615 24.95265 174 ft 15 kts 48°
2026-04-24 23:30 60.31689 24.95432 175 ft 16 kts 48°
2026-04-24 23:30 60.31766 24.95602 175 ft 17 kts 47°
2026-04-24 23:31 60.31849 24.95787 175 ft 18 kts 47°
2026-04-24 23:31 60.31927 24.95951 174 ft 11 kts 37°
2026-04-24 23:31 60.31981 24.95929 177 ft 6 kts 318°
2026-04-24 23:31 60.31991 24.95910 177 ft 0 kts 318°
2026-04-24 23:32 60.32012 24.95872 178 ft 13 kts 318°
2026-04-24 23:32 60.32085 24.95740 180 ft 14 kts 318°
2026-04-24 23:32 60.32163 24.95595 179 ft 16 kts 317°
2026-04-24 23:32 60.32243 24.95445 181 ft 15 kts 317°
2026-04-24 23:33 60.32321 24.95301 182 ft 15 kts 322°
2026-04-24 23:33 60.32383 24.95243 183 ft 15 kts 340°
2026-04-24 23:33 60.32508 24.95162 193 ft 14 kts 341°
2026-04-24 23:33 60.32600 24.95099 203 ft 14 kts 341°
2026-04-24 23:34 60.32700 24.95031 198 ft 16 kts 342°
2026-04-24 23:34 60.32819 24.94962 181 ft 19 kts 343°
2026-04-24 23:34 60.32935 24.94839 183 ft 13 kts 316°
2026-04-24 23:34 60.32995 24.94722 196 ft 11 kts 316°
2026-04-24 23:35 60.33047 24.94623 196 ft 9 kts 316°
2026-04-24 23:35 60.33086 24.94548 206 ft 7 kts 316°
2026-04-24 23:35 60.33114 24.94495 206 ft 5 kts 316°
2026-04-24 23:35 60.33123 24.94419 205 ft 6 kts 246°
2026-04-24 23:36 60.33109 24.94382 208 ft 0 kts 228°
2026-04-24 23:37 60.33098 24.94359 197 ft 18 kts 226°
2026-04-24 23:37 60.32968 24.94068 206 ft 65 kts 228°
2026-04-24 23:37 60.31580 24.91032 662 ft 149 kts 226°
2026-04-24 23:38 60.30870 24.89632 1463 ft 137 kts 225°
2026-04-24 23:38 60.30398 24.88789 1919 ft 131 kts 224°
2026-04-24 23:38 60.29803 24.87397 2118 ft 141 kts 253°
2026-04-24 23:38 60.29878 24.85373 2253 ft 155 kts 294°
2026-04-24 23:39 60.30382 24.83339 2528 ft 170 kts 301°
2026-04-24 23:39 60.31029 24.81256 2847 ft 184 kts 297°
2026-04-24 23:39 60.31581 24.78847 3171 ft 195 kts 289°
2026-04-24 23:39 60.31857 24.76093 3522 ft 208 kts 274°
2026-04-24 23:40 60.31789 24.73060 3829 ft 225 kts 267°
2026-04-24 23:40 60.31672 24.69797 4174 ft 241 kts 268°
2026-04-24 23:40 60.31576 24.66366 4738 ft 247 kts 269°
2026-04-24 23:40 60.31517 24.62860 5414 ft 249 kts 270°
2026-04-24 23:41 60.31476 24.59431 6351 ft 241 kts 271°
2026-04-24 23:41 60.31449 24.56091 7233 ft 235 kts 272°
2026-04-24 23:41 60.31438 24.52839 8088 ft 229 kts 273°
2026-04-24 23:41 60.31427 24.49648 8899 ft 229 kts 270°
2026-04-24 23:42 60.31220 24.46307 9050 ft 256 kts 265°
2026-04-24 23:42 60.30920 24.42631 9465 ft 267 kts 264°
2026-04-24 23:42 60.30590 24.38970 10280 ft 264 kts 263°
2026-04-24 23:42 60.30231 24.35274 10782 ft 276 kts 263°
2026-04-24 23:43 60.29843 24.31421 11078 ft 291 kts 262°
2026-04-24 23:43 60.29424 24.27311 11396 ft 307 kts 262°
2026-04-24 23:43 60.28983 24.23004 11717 ft 322 kts 262°
2026-04-24 23:43 60.28520 24.18482 12041 ft 335 kts 262°
2026-04-24 23:44 60.28042 24.13828 12559 ft 342 kts 262°
2026-04-24 23:44 60.27557 24.09133 13294 ft 342 kts 261°
2026-04-24 23:44 60.27066 24.04431 13950 ft 344 kts 262°
2026-04-24 23:44 60.26576 23.99695 14559 ft 346 kts 262°
2026-04-24 23:45 60.26083 23.94915 15162 ft 348 kts 262°
2026-04-24 23:45 60.25590 23.90135 15796 ft 350 kts 262°
2026-04-24 23:45 60.25091 23.85322 16417 ft 352 kts 262°
2026-04-24 23:45 60.24587 23.80482 17080 ft 354 kts 262°
2026-04-24 23:46 60.24078 23.75605 17748 ft 357 kts 262°
2026-04-24 23:46 60.23571 23.70774 18321 ft 359 kts 262°
2026-04-24 23:46 60.23047 23.65807 18826 ft 364 kts 262°
2026-04-24 23:46 60.22518 23.60804 19324 ft 368 kts 262°
2026-04-24 23:47 60.21980 23.55746 19834 ft 371 kts 261°
2026-04-24 23:47 60.21435 23.50641 20338 ft 375 kts 261°
2026-04-24 23:47 60.20882 23.45487 20839 ft 379 kts 261°
2026-04-24 23:47 60.20323 23.40289 21348 ft 382 kts 261°
2026-04-24 23:48 60.19756 23.35036 21831 ft 386 kts 261°
2026-04-24 23:48 60.19181 23.29738 22322 ft 390 kts 261°
2026-04-24 23:48 60.18606 23.24456 22819 ft 393 kts 261°
2026-04-24 23:48 60.18010 23.18994 23258 ft 397 kts 261°
2026-04-24 23:49 60.17421 23.13621 23609 ft 402 kts 261°
2026-04-24 23:49 60.16814 23.08112 24034 ft 405 kts 261°
2026-04-24 23:49 60.16202 23.02588 24478 ft 407 kts 261°
2026-04-24 23:49 60.15582 22.97021 24906 ft 410 kts 261°
2026-04-24 23:50 60.14955 22.91415 25326 ft 412 kts 260°
2026-04-24 23:50 60.14323 22.85780 25746 ft 415 kts 260°
2026-04-24 23:50 60.13686 22.80125 26151 ft 417 kts 260°
2026-04-24 23:50 60.13043 22.74431 26565 ft 420 kts 260°
2026-04-24 23:51 60.12392 22.68696 26970 ft 423 kts 260°
2026-04-24 23:51 60.11734 22.62930 27372 ft 425 kts 259°
2026-04-24 23:51 60.11071 22.57133 27775 ft 428 kts 259°
2026-04-24 23:51 60.10400 22.51297 28161 ft 430 kts 259°
2026-04-24 23:52 60.09723 22.45434 28563 ft 432 kts 259°
2026-04-24 23:52 60.09040 22.39544 28951 ft 435 kts 259°
2026-04-24 23:52 60.08351 22.33625 29311 ft 437 kts 259°
2026-04-24 23:52 60.07665 22.27755 29634 ft 440 kts 259°
2026-04-24 23:53 60.06962 22.21770 29928 ft 442 kts 259°
2026-04-24 23:53 60.06253 22.15758 30200 ft 444 kts 259°
2026-04-24 23:53 60.05538 22.09721 30392 ft 448 kts 259°
2026-04-24 23:53 60.04814 22.03631 30598 ft 451 kts 259°
2026-04-24 23:54 60.04085 21.97522 30885 ft 452 kts 259°
2026-04-24 23:54 60.03350 21.91397 31173 ft 453 kts 259°
2026-04-24 23:54 60.02612 21.85280 31539 ft 452 kts 258°
2026-04-24 23:54 60.01873 21.79176 31887 ft 451 kts 258°
2026-04-24 23:55 60.01131 21.73069 32209 ft 451 kts 258°
2026-04-24 23:55 60.00386 21.66972 32556 ft 450 kts 258°
2026-04-24 23:55 59.99645 21.60931 33047 ft 445 kts 258°
2026-04-24 23:55 59.98908 21.54949 33408 ft 444 kts 258°
2026-04-24 23:56 59.98167 21.48946 33682 ft 445 kts 258°
2026-04-24 23:56 59.97425 21.42958 33881 ft 445 kts 258°
2026-04-24 23:56 59.96678 21.36960 34086 ft 445 kts 258°
2026-04-24 23:56 59.95927 21.30953 34263 ft 446 kts 258°
2026-04-24 23:57 59.95172 21.24933 34449 ft 447 kts 258°
2026-04-24 23:57 59.94414 21.18929 34636 ft 447 kts 258°
2026-04-24 23:57 59.93663 21.12992 34814 ft 448 kts 258°
2026-04-24 23:57 59.92896 21.06956 34985 ft 448 kts 258°
2026-04-24 23:58 59.92126 21.00927 35154 ft 449 kts 258°
2026-04-24 23:58 59.91353 20.94895 35331 ft 450 kts 258°
2026-04-24 23:58 59.90574 20.88844 35477 ft 450 kts 258°
2026-04-24 23:58 59.89795 20.82807 35626 ft 451 kts 258°
2026-04-24 23:59 59.89010 20.76757 35779 ft 451 kts 258°
2026-04-24 23:59 59.88219 20.70683 35929 ft 452 kts 258°
2026-04-24 23:59 59.87426 20.64623 36091 ft 452 kts 258°
2026-04-24 23:59 59.86642 20.58647 36216 ft 453 kts 258°
2026-04-25 00:00 59.85833 20.52510 36373 ft 453 kts 258°
2026-04-25 00:00 59.85029 20.46437 36516 ft 453 kts 258°
2026-04-25 00:00 59.84233 20.40441 36646 ft 454 kts 258°
2026-04-25 00:00 59.83422 20.34363 36772 ft 454 kts 258°
2026-04-25 00:01 59.82609 20.28287 36907 ft 455 kts 258°
2026-04-25 00:01 59.81793 20.22220 37018 ft 455 kts 257°
2026-04-25 00:01 59.80972 20.16133 37139 ft 455 kts 257°
2026-04-25 00:01 59.80149 20.10059 37254 ft 456 kts 257°
2026-04-25 00:02 59.79322 20.03983 37372 ft 455 kts 258°
2026-04-25 00:02 59.78496 19.97930 37541 ft 454 kts 258°
2026-04-25 00:02 59.76831 19.85799 37659 ft 457 kts 258°
2026-04-25 00:03 59.75141 19.73573 37656 ft 462 kts 258°
2026-04-25 00:03 59.73443 19.61278 37666 ft 462 kts 258°
2026-04-25 00:04 59.71750 19.48979 37659 ft 462 kts 258°
2026-04-25 00:04 59.70050 19.36724 37658 ft 462 kts 257°
2026-04-25 00:05 59.68344 19.24539 37664 ft 462 kts 257°
2026-04-25 00:05 59.66634 19.12303 37658 ft 461 kts 259°
2026-04-25 00:06 59.65790 18.99808 37640 ft 457 kts 269°
2026-04-25 00:06 59.65460 18.87267 37662 ft 456 kts 270°
2026-04-25 00:07 59.65200 18.74739 37665 ft 456 kts 270°
2026-04-25 00:07 59.64921 18.62200 37671 ft 456 kts 269°
2026-04-25 00:08 59.64616 18.49674 37675 ft 454 kts 269°
2026-04-25 00:08 59.64294 18.37226 37680 ft 453 kts 269°
2026-04-25 00:09 59.63962 18.24870 37688 ft 453 kts 269°
2026-04-25 00:09 59.63617 18.12422 37693 ft 453 kts 269°
2026-04-25 00:10 59.63260 17.99981 37689 ft 453 kts 269°
2026-04-25 00:10 59.62893 17.87551 37697 ft 453 kts 268°
2026-04-25 00:11 59.62578 17.77217 37687 ft 453 kts 268°
2026-04-25 00:11 59.62121 17.62690 37673 ft 453 kts 268°
2026-04-25 00:12 59.61717 17.50260 37679 ft 453 kts 268°
2026-04-25 00:12 59.61302 17.37835 37703 ft 453 kts 268°
2026-04-25 00:13 59.60875 17.25422 37676 ft 453 kts 268°
2026-04-25 00:13 59.60436 17.13024 37698 ft 452 kts 268°
2026-04-25 00:14 59.59990 17.00700 37700 ft 453 kts 268°
2026-04-25 00:14 59.59528 16.88285 37702 ft 453 kts 268°
2026-04-25 00:15 59.59054 16.75868 37691 ft 453 kts 268°
2026-04-25 00:15 59.58968 16.63462 37691 ft 451 kts 277°
2026-04-25 00:16 59.59985 16.51275 37691 ft 450 kts 282°
2026-04-25 00:16 59.61206 16.39130 37693 ft 452 kts 282°
2026-04-25 00:17 59.62393 16.26922 37694 ft 453 kts 278°
2026-04-25 00:17 59.62453 16.14461 37698 ft 455 kts 268°
2026-04-25 00:18 59.61855 16.02087 37701 ft 456 kts 266°
2026-04-25 00:18 59.61139 15.89640 37703 ft 456 kts 265°
2026-04-25 00:19 59.60415 15.77189 37703 ft 455 kts 265°
2026-04-25 00:19 59.59699 15.64778 37702 ft 454 kts 265°
2026-04-25 00:20 59.58979 15.52383 37703 ft 454 kts 265°
2026-04-25 00:20 59.58250 15.40002 37700 ft 454 kts 265°
2026-04-25 00:21 59.57506 15.27597 37699 ft 454 kts 265°
2026-04-25 00:21 59.56756 15.15299 37702 ft 453 kts 265°
2026-04-25 00:22 59.55992 15.02981 37704 ft 451 kts 265°
2026-04-25 00:22 59.55220 14.90705 37705 ft 451 kts 265°
2026-04-25 00:23 59.54436 14.78432 37705 ft 451 kts 265°
2026-04-25 00:23 59.53647 14.66255 37710 ft 451 kts 265°
2026-04-25 00:24 59.52839 14.53985 37708 ft 451 kts 265°
2026-04-25 00:24 59.52159 14.43789 37708 ft 451 kts 265°
2026-04-25 00:25 59.51332 14.31547 37714 ft 451 kts 265°
2026-04-25 00:25 59.50353 14.17292 37716 ft 451 kts 265°
2026-04-25 00:26 59.49639 14.07028 37719 ft 451 kts 265°
2026-04-25 00:26 59.48777 13.94789 37719 ft 451 kts 265°
2026-04-25 00:27 59.47906 13.82614 37723 ft 451 kts 264°
2026-04-25 00:27 59.47020 13.70386 37698 ft 451 kts 265°
2026-04-25 00:28 59.46123 13.58157 37692 ft 452 kts 264°
2026-04-25 00:28 59.45213 13.45919 37696 ft 453 kts 264°
2026-04-25 00:29 59.44290 13.33659 37691 ft 453 kts 264°
2026-04-25 00:29 59.43352 13.21420 37686 ft 453 kts 264°
2026-04-25 00:30 59.42399 13.09268 37744 ft 453 kts 264°
2026-04-25 00:30 59.41427 12.97027 37754 ft 453 kts 264°
2026-04-25 00:31 59.40448 12.84802 37759 ft 453 kts 264°
2026-04-25 00:31 59.39457 12.72578 37762 ft 453 kts 264°
2026-04-25 00:32 59.38454 12.60353 37755 ft 454 kts 264°
2026-04-25 00:32 59.37438 12.48125 37767 ft 454 kts 264°
2026-04-25 00:33 59.36413 12.35922 37765 ft 454 kts 264°
2026-04-25 00:33 59.35374 12.23701 37763 ft 454 kts 264°
2026-04-25 00:34 59.34333 12.11591 37783 ft 454 kts 264°
2026-04-25 00:34 59.33272 11.99391 37733 ft 454 kts 264°
2026-04-25 00:35 59.32211 11.87220 37781 ft 453 kts 264°
2026-04-25 00:35 59.31150 11.75050 37782 ft 453 kts 263°
2026-04-25 00:36 59.30059 11.62893 37782 ft 453 kts 263°
2026-04-25 00:36 59.28949 11.50722 37791 ft 454 kts 263°
2026-04-25 00:37 59.27832 11.38572 37796 ft 454 kts 263°
2026-04-25 00:37 59.26702 11.26401 37796 ft 454 kts 263°
2026-04-25 00:38 59.26141 11.20403 38026 ft 454 kts 263°
2026-04-25 00:38 59.25570 11.14326 38068 ft 454 kts 263°
2026-04-25 00:38 59.24418 11.02163 38155 ft 455 kts 263°
2026-04-25 00:39 59.23254 10.90007 38186 ft 456 kts 263°
2026-04-25 00:39 59.22072 10.77781 38185 ft 459 kts 263°
2026-04-25 00:40 59.20873 10.65523 38174 ft 459 kts 263°
2026-04-25 00:40 59.19662 10.53272 38085 ft 459 kts 263°
2026-04-25 00:41 59.18440 10.41031 37979 ft 459 kts 263°
2026-04-25 00:41 59.17285 10.28794 37809 ft 458 kts 267°
2026-04-25 00:42 59.17183 10.16566 37800 ft 452 kts 276°
2026-04-25 00:42 59.17514 10.04331 37804 ft 452 kts 277°
2026-04-25 00:43 59.17878 9.92106 37811 ft 452 kts 277°
2026-04-25 00:43 59.18223 9.79866 37815 ft 452 kts 276°
2026-04-25 00:44 59.18546 9.67605 37825 ft 452 kts 276°
2026-04-25 00:44 59.18558 9.55404 37827 ft 448 kts 268°
2026-04-25 00:45 59.17649 9.43419 37833 ft 446 kts 265°
2026-04-25 00:45 59.16560 9.31506 37835 ft 446 kts 265°
2026-04-25 00:46 59.15442 9.19600 37850 ft 446 kts 265°
2026-04-25 00:47 59.13778 9.01757 37847 ft 446 kts 265°
2026-04-25 00:47 59.12667 8.89907 37857 ft 440 kts 265°
2026-04-25 00:48 59.11565 8.78295 37860 ft 434 kts 265°
2026-04-25 00:48 59.10465 8.66758 37877 ft 433 kts 265°
2026-04-25 00:49 59.09362 8.55307 37879 ft 433 kts 265°
2026-04-25 00:49 59.08240 8.43786 37903 ft 433 kts 265°
2026-04-25 00:50 59.07106 8.32274 37897 ft 433 kts 265°
2026-04-25 00:50 59.05963 8.20771 37897 ft 432 kts 264°
2026-04-25 00:51 59.04812 8.09303 37917 ft 433 kts 264°
2026-04-25 00:51 59.03647 7.97792 37920 ft 434 kts 264°
2026-04-25 00:52 59.02469 7.86280 37936 ft 435 kts 264°
2026-04-25 00:52 59.01281 7.74775 37942 ft 435 kts 264°
2026-04-25 00:53 59.00086 7.63282 37891 ft 434 kts 263°
2026-04-25 00:53 58.98936 7.51768 37949 ft 436 kts 266°
2026-04-25 00:54 58.98273 7.40174 37956 ft 435 kts 269°
2026-04-25 00:54 58.97739 7.28499 37972 ft 434 kts 269°
2026-04-25 00:55 58.97230 7.16850 37971 ft 434 kts 269°
2026-04-25 00:55 58.96708 7.05200 37990 ft 434 kts 269°
2026-04-25 00:56 58.96174 6.93550 37975 ft 434 kts 268°
2026-04-25 00:56 58.95567 6.81834 38008 ft 440 kts 267°
2026-04-25 00:57 58.94786 6.69985 38007 ft 446 kts 266°
2026-04-25 00:57 58.93977 6.58052 38019 ft 446 kts 266°
2026-04-25 00:58 58.93187 6.46207 38022 ft 446 kts 266°
2026-04-25 00:58 58.92398 6.34294 38036 ft 446 kts 266°
2026-04-25 00:59 58.91600 6.22377 38043 ft 446 kts 266°
2026-04-25 00:59 58.90787 6.10451 38056 ft 447 kts 266°
2026-04-25 01:00 58.89963 5.98533 38061 ft 447 kts 266°
2026-04-25 01:00 58.89127 5.86603 38068 ft 447 kts 266°
2026-04-25 01:01 58.88284 5.74745 38074 ft 448 kts 266°
2026-04-25 01:01 58.87149 5.62880 38078 ft 453 kts 257°
2026-04-25 01:02 58.85068 5.51353 38052 ft 455 kts 254°
2026-04-25 01:02 58.82798 5.39908 38053 ft 456 kts 253°
2026-04-25 01:03 58.80498 5.28497 38060 ft 456 kts 253°
2026-04-25 01:03 58.78203 5.17091 38059 ft 456 kts 253°
2026-04-25 01:04 58.75922 5.05761 38059 ft 456 kts 253°
2026-04-25 01:04 58.73620 4.94377 38063 ft 456 kts 253°
2026-04-25 01:05 58.71304 4.82991 38073 ft 456 kts 253°
2026-04-25 01:05 58.68978 4.71625 38080 ft 456 kts 253°
2026-04-25 01:06 58.66643 4.60280 38077 ft 456 kts 253°
2026-04-25 01:06 58.64296 4.48940 38088 ft 456 kts 253°
2026-04-25 01:07 58.62330 4.37420 38077 ft 453 kts 258°
2026-04-25 01:07 58.60633 4.25867 38097 ft 453 kts 259°
2026-04-25 01:08 58.58954 4.14218 38102 ft 453 kts 259°
2026-04-25 01:08 58.57261 4.02590 38099 ft 453 kts 259°
2026-04-25 01:09 58.55552 3.90986 38108 ft 453 kts 258°
2026-04-25 01:09 58.53829 3.79387 38107 ft 453 kts 258°
2026-04-25 01:10 58.52093 3.67794 38120 ft 453 kts 258°
2026-04-25 01:10 58.50644 3.58172 38116 ft 453 kts 258°
2026-04-25 01:11 58.48602 3.44709 38126 ft 453 kts 258°
2026-04-25 01:11 58.47122 3.35016 38126 ft 453 kts 258°
2026-04-25 01:12 58.45347 3.23465 38129 ft 453 kts 258°
2026-04-25 01:12 58.43561 3.11921 38110 ft 453 kts 258°
2026-04-25 01:13 58.41770 3.00412 38137 ft 458 kts 258°
2026-04-25 01:13 58.39944 2.88767 38142 ft 458 kts 258°
2026-04-25 01:14 58.38070 2.77159 38142 ft 459 kts 256°
2026-04-25 01:14 58.35911 2.65694 38143 ft 460 kts 254°
2026-04-25 01:15 58.33686 2.54278 38151 ft 460 kts 254°
2026-04-25 01:15 58.31485 2.42832 38147 ft 460 kts 255°
2026-04-25 01:16 58.29299 2.31375 38151 ft 461 kts 255°
2026-04-25 01:16 58.27124 2.20005 38171 ft 460 kts 255°
2026-04-25 01:17 58.24923 2.08576 38156 ft 461 kts 254°
2026-04-25 01:17 58.22710 1.97156 38173 ft 461 kts 254°
2026-04-25 01:18 58.20486 1.85749 38166 ft 461 kts 254°
2026-04-25 01:18 58.18250 1.74349 38154 ft 461 kts 254°
2026-04-25 01:19 58.16003 1.62955 38178 ft 461 kts 253°
2026-04-25 01:19 58.13762 1.51665 38177 ft 461 kts 253°
2026-04-25 01:20 58.11492 1.40286 38193 ft 461 kts 253°
2026-04-25 01:20 58.09217 1.28951 38191 ft 461 kts 253°
2026-04-25 01:21 58.06931 1.17624 38198 ft 461 kts 253°
2026-04-25 01:21 58.04636 1.06317 38200 ft 461 kts 253°
2026-04-25 01:22 58.02346 0.95100 38212 ft 461 kts 253°
2026-04-25 01:22 58.00028 0.83807 38208 ft 461 kts 253°
2026-04-25 01:23 57.97704 0.72548 38213 ft 461 kts 253°
2026-04-25 01:23 57.95368 0.61292 38214 ft 461 kts 253°
2026-04-25 01:24 57.93024 0.50061 38212 ft 461 kts 252°
2026-04-25 01:24 57.90688 0.38936 38218 ft 459 kts 252°
2026-04-25 01:25 57.88335 0.27784 38214 ft 458 kts 252°
2026-04-25 01:25 57.85976 0.16659 38224 ft 458 kts 252°
2026-04-25 01:26 57.83605 0.05550 38227 ft 459 kts 252°
2026-04-25 01:26 57.82412 -0.00016 38104 ft 459 kts 252°
2026-04-25 01:26 57.81220 -0.05565 38225 ft 459 kts 252°
2026-04-25 01:27 57.78829 -0.16652 38229 ft 458 kts 252°
2026-04-25 01:27 57.76427 -0.27726 38227 ft 458 kts 252°
2026-04-25 01:28 57.72806 -0.44317 38231 ft 459 kts 251°
2026-04-25 01:28 57.70381 -0.55355 38235 ft 459 kts 251°
2026-04-25 01:29 57.67947 -0.66379 38233 ft 459 kts 251°
2026-04-25 01:29 57.65501 -0.77389 38241 ft 459 kts 251°
2026-04-25 01:30 57.63062 -0.88310 38247 ft 457 kts 251°
2026-04-25 01:30 57.60592 -0.99312 38237 ft 457 kts 251°
2026-04-25 01:31 57.58144 -1.10163 38239 ft 457 kts 251°
2026-04-25 01:31 57.55671 -1.21073 38235 ft 457 kts 251°
2026-04-25 01:32 57.53193 -1.31957 38253 ft 457 kts 251°
2026-04-25 01:32 57.50697 -1.42852 38253 ft 457 kts 251°
2026-04-25 01:33 57.48192 -1.53726 38246 ft 457 kts 250°
2026-04-25 01:33 57.45680 -1.64584 38246 ft 457 kts 250°
2026-04-25 01:34 57.43173 -1.75355 38253 ft 457 kts 250°
2026-04-25 01:34 57.40640 -1.86187 38251 ft 458 kts 250°
2026-04-25 01:35 57.38095 -1.97017 38258 ft 458 kts 250°
2026-04-25 01:35 57.35542 -2.07825 38252 ft 458 kts 250°
2026-04-25 01:36 57.32983 -2.18625 38264 ft 457 kts 250°
2026-04-25 01:36 57.31231 -2.29819 38265 ft 450 kts 265°
2026-04-25 01:37 57.30841 -2.41332 38252 ft 448 kts 270°
2026-04-25 01:37 57.30727 -2.52891 38267 ft 450 kts 271°
2026-04-25 01:38 57.30632 -2.64387 38272 ft 450 kts 271°
2026-04-25 01:38 57.30503 -2.75959 38271 ft 450 kts 271°
2026-04-25 01:39 57.30348 -2.87529 38273 ft 450 kts 271°
2026-04-25 01:39 57.30179 -2.99092 38256 ft 450 kts 270°
2026-04-25 01:40 57.29999 -3.10693 38267 ft 452 kts 270°
2026-04-25 01:40 57.29809 -3.22312 38270 ft 452 kts 270°
2026-04-25 01:41 57.29608 -3.33942 38271 ft 452 kts 270°
2026-04-25 01:41 57.29396 -3.45557 38270 ft 452 kts 270°
2026-04-25 01:42 57.29174 -3.57189 38248 ft 452 kts 270°
2026-04-25 01:42 57.28943 -3.68743 38267 ft 453 kts 269°
2026-04-25 01:43 57.28699 -3.80403 38266 ft 454 kts 269°
2026-04-25 01:43 57.28443 -3.92066 38266 ft 454 kts 269°
2026-04-25 01:44 57.28177 -4.03729 38260 ft 454 kts 269°
2026-04-25 01:44 57.27900 -4.15391 38263 ft 454 kts 269°
2026-04-25 01:45 57.27612 -4.27075 38264 ft 455 kts 269°
2026-04-25 01:45 57.27312 -4.38780 38255 ft 456 kts 268°
2026-04-25 01:46 57.27001 -4.50477 38258 ft 456 kts 268°
2026-04-25 01:46 57.26682 -4.62103 38256 ft 456 kts 268°
2026-04-25 01:47 57.26349 -4.73796 38255 ft 456 kts 268°
2026-04-25 01:47 57.26006 -4.85526 38251 ft 458 kts 268°
2026-04-25 01:48 57.25650 -4.97264 38251 ft 459 kts 268°
2026-04-25 01:48 57.25282 -5.09048 38245 ft 459 kts 268°
2026-04-25 01:49 57.24905 -5.20810 38245 ft 459 kts 268°
2026-04-25 01:49 57.24515 -5.32586 38241 ft 459 kts 267°
2026-04-25 01:50 57.24117 -5.44353 38240 ft 460 kts 267°
2026-04-25 01:50 57.23702 -5.56150 38230 ft 461 kts 267°
2026-04-25 01:51 57.23277 -5.67952 38226 ft 461 kts 266°
2026-04-25 01:51 57.22841 -5.79754 38222 ft 461 kts 266°
2026-04-25 01:52 57.22394 -5.91570 38225 ft 461 kts 266°
2026-04-25 01:52 57.21939 -6.03297 38219 ft 462 kts 266°
2026-04-25 01:53 57.21465 -6.15168 38218 ft 463 kts 266°
2026-04-25 01:53 57.20986 -6.27030 38222 ft 464 kts 266°
2026-04-25 01:54 57.20493 -6.38889 38217 ft 464 kts 265°
2026-04-25 01:54 57.19988 -6.50745 38210 ft 464 kts 265°
2026-04-25 01:55 57.19471 -6.62602 38215 ft 464 kts 265°
2026-04-25 01:55 57.18943 -6.74468 38213 ft 464 kts 265°
2026-04-25 01:56 57.18408 -6.86236 38214 ft 464 kts 265°
2026-04-25 01:56 57.17858 -6.98098 38209 ft 464 kts 265°
2026-04-25 01:57 57.17014 -7.15851 38210 ft 464 kts 265°
2026-04-25 01:58 57.16434 -7.27736 38212 ft 466 kts 265°
2026-04-25 01:58 57.15846 -7.39550 38212 ft 466 kts 265°
2026-04-25 01:59 57.15243 -7.51444 38209 ft 466 kts 264°
2026-04-25 01:59 57.14728 -7.61416 38208 ft 466 kts 264°
2026-04-25 02:00 57.14108 -7.73236 38206 ft 466 kts 264°
2026-04-25 02:00 57.13483 -7.85147 38212 ft 468 kts 264°
2026-04-25 02:01 57.12829 -7.97084 38214 ft 469 kts 264°
2026-04-25 02:01 57.12168 -8.09015 38211 ft 468 kts 264°
2026-04-25 02:02 57.11494 -8.20942 38211 ft 468 kts 264°
2026-04-25 02:02 57.10807 -8.32858 38210 ft 468 kts 263°
2026-04-25 02:03 57.10119 -8.44820 38211 ft 471 kts 264°
2026-04-25 02:03 57.09412 -8.56717 38211 ft 471 kts 263°
2026-04-25 02:04 57.08686 -8.68694 38212 ft 471 kts 263°
2026-04-25 02:04 57.07951 -8.80668 38209 ft 471 kts 263°
2026-04-25 02:05 57.07208 -8.92634 38211 ft 471 kts 263°
2026-04-25 02:05 57.06480 -9.04644 38211 ft 473 kts 263°
2026-04-25 02:06 57.05702 -9.16668 38211 ft 473 kts 262°
2026-04-25 02:06 57.04903 -9.28671 38210 ft 474 kts 262°
2026-04-25 02:07 57.04102 -9.40672 38208 ft 473 kts 262°
2026-04-25 02:07 57.03306 -9.52598 38210 ft 475 kts 262°
2026-04-25 02:08 57.02487 -9.64687 38209 ft 478 kts 262°
2026-04-25 02:08 57.01646 -9.76818 38205 ft 479 kts 262°
2026-04-25 02:09 57.00794 -9.88941 38203 ft 479 kts 262°
2026-04-25 02:09 57.00774 -10.01147 38510 ft 479 kts 278°
2026-04-25 02:09 57.01486 -10.07111 38719 ft 478 kts 286°
2026-04-25 02:10 57.02479 -10.12882 38643 ft 483 kts 288°
2026-04-25 02:10 57.03582 -10.18705 38756 ft 483 kts 289°
2026-04-25 02:10 57.04741 -10.24573 38922 ft 482 kts 289°
2026-04-25 02:11 57.07041 -10.36141 39135 ft 482 kts 289°
2026-04-25 02:11 57.09301 -10.47705 39205 ft 485 kts 288°
2026-04-25 02:12 57.11568 -10.59509 39203 ft 486 kts 288°
2026-04-25 02:12 57.13804 -10.71247 39211 ft 485 kts 289°
2026-04-25 02:13 57.16014 -10.82916 39198 ft 488 kts 288°
2026-04-25 02:13 57.18252 -10.94808 39196 ft 491 kts 288°
2026-04-25 02:14 57.20478 -11.06709 39193 ft 490 kts 288°
2026-04-25 02:14 57.22684 -11.18579 39206 ft 489 kts 288°
2026-04-25 02:15 57.24878 -11.30458 39193 ft 488 kts 288°
2026-04-25 02:15 57.27060 -11.42334 39204 ft 490 kts 288°
2026-04-25 02:16 57.29246 -11.54311 39205 ft 493 kts 288°
2026-04-25 02:16 57.31424 -11.66337 39202 ft 493 kts 288°
2026-04-25 02:17 57.33594 -11.78390 39197 ft 492 kts 288°
2026-04-25 02:17 57.35732 -11.90343 39197 ft 492 kts 288°
2026-04-25 02:18 57.37869 -12.02367 39238 ft 491 kts 288°
2026-04-25 02:18 57.39995 -12.14438 39199 ft 493 kts 288°
2026-04-25 02:19 57.42122 -12.26545 39201 ft 494 kts 288°
2026-04-25 02:19 57.44238 -12.38667 39205 ft 493 kts 287°
2026-04-25 02:20 57.46340 -12.50807 39207 ft 494 kts 287°
2026-04-25 02:20 57.48429 -12.62962 39200 ft 494 kts 287°
2026-04-25 02:21 57.50496 -12.75064 39205 ft 494 kts 287°
2026-04-25 02:21 57.52558 -12.87222 39199 ft 493 kts 287°
2026-04-25 02:22 57.54613 -12.99430 39200 ft 493 kts 286°
2026-04-25 02:22 57.56652 -13.11634 39198 ft 492 kts 287°
2026-04-25 02:23 57.58678 -13.23803 39205 ft 491 kts 287°
2026-04-25 02:23 57.60672 -13.35874 39202 ft 490 kts 286°
2026-04-25 02:24 57.62669 -13.48081 39198 ft 493 kts 287°
2026-04-25 02:24 57.64670 -13.60364 39203 ft 494 kts 286°
2026-04-25 02:25 57.66658 -13.72654 39200 ft 494 kts 286°
2026-04-25 02:25 57.68636 -13.84975 39200 ft 494 kts 286°
2026-04-25 02:26 57.70598 -13.97292 39193 ft 494 kts 286°
2026-04-25 02:26 57.72536 -14.09546 39203 ft 494 kts 286°
2026-04-25 02:27 57.74478 -14.21914 39198 ft 496 kts 286°
2026-04-25 02:27 57.76415 -14.34336 39197 ft 497 kts 285°
2026-04-25 02:28 57.78337 -14.46753 39195 ft 497 kts 285°
2026-04-25 02:28 57.80249 -14.59203 39195 ft 496 kts 285°
2026-04-25 02:29 57.82148 -14.71654 39195 ft 496 kts 285°
2026-04-25 02:29 57.84037 -14.84138 39197 ft 499 kts 285°
2026-04-25 02:30 57.85926 -14.96721 39196 ft 501 kts 285°
2026-04-25 02:30 57.87798 -15.09273 39191 ft 501 kts 285°
2026-04-25 02:31 57.89664 -15.21893 39196 ft 501 kts 285°
2026-04-25 02:31 57.91518 -15.34523 39191 ft 501 kts 285°
2026-04-25 02:32 57.93359 -15.47169 39198 ft 502 kts 285°
2026-04-25 02:32 57.95198 -15.59899 39190 ft 507 kts 285°
2026-04-25 02:33 57.97037 -15.72734 39188 ft 507 kts 284°
2026-04-25 02:33 57.98860 -15.85553 39184 ft 507 kts 284°
2026-04-25 02:34 58.00671 -15.98396 39184 ft 507 kts 284°
2026-04-25 02:34 58.02455 -16.11152 39185 ft 505 kts 284°
2026-04-25 02:35 58.04235 -16.23976 39182 ft 506 kts 284°
2026-04-25 02:35 58.06008 -16.36870 39181 ft 508 kts 284°
2026-04-25 02:36 58.07771 -16.49789 39180 ft 508 kts 284°
2026-04-25 02:36 58.09519 -16.62713 39184 ft 508 kts 284°
2026-04-25 02:37 58.11257 -16.75663 39177 ft 508 kts 283°
2026-04-25 02:37 58.12980 -16.88623 39182 ft 509 kts 283°
2026-04-25 02:38 58.14698 -17.01656 39176 ft 512 kts 283°
2026-04-25 02:38 58.16411 -17.14758 39164 ft 512 kts 283°
2026-04-25 02:39 58.18104 -17.27827 39167 ft 509 kts 283°
2026-04-25 02:39 58.19777 -17.40854 39176 ft 508 kts 283°
2026-04-25 02:40 58.21436 -17.53883 39188 ft 508 kts 283°
2026-04-25 02:40 58.23087 -17.66975 39167 ft 512 kts 283°
2026-04-25 02:41 58.24731 -17.80133 39173 ft 513 kts 283°
2026-04-25 02:41 58.26354 -17.93232 39169 ft 513 kts 283°
2026-04-25 02:42 58.27972 -18.06414 39168 ft 513 kts 282°
2026-04-25 02:42 58.29578 -18.19626 39160 ft 513 kts 282°
2026-04-25 02:43 58.31168 -18.32832 39165 ft 512 kts 282°
2026-04-25 02:43 58.32745 -18.46045 39158 ft 513 kts 282°
2026-04-25 02:44 58.34310 -18.59292 39160 ft 513 kts 282°
2026-04-25 02:44 58.35861 -18.72546 39160 ft 513 kts 282°
2026-04-25 02:45 58.37397 -18.85799 39160 ft 513 kts 282°
2026-04-25 02:45 58.38921 -18.99079 39170 ft 513 kts 282°
2026-04-25 02:46 58.40437 -19.12422 39161 ft 517 kts 282°
2026-04-25 02:46 58.41950 -19.25872 39159 ft 519 kts 282°
2026-04-25 02:47 58.43197 -19.37064 39151 ft 518 kts 281°
2026-04-25 02:47 58.44916 -19.52644 39158 ft 515 kts 281°
2026-04-25 02:48 58.46377 -19.66038 39157 ft 515 kts 281°
2026-04-25 02:48 58.47588 -19.77255 39158 ft 515 kts 281°
2026-04-25 02:49 58.49015 -19.90589 39150 ft 515 kts 281°
2026-04-25 02:49 58.50429 -20.04007 39153 ft 515 kts 280°
2026-04-25 02:50 58.51653 -20.17497 39153 ft 514 kts 278°
2026-04-25 02:50 58.52793 -20.31039 39152 ft 514 kts 278°
2026-04-25 02:51 58.53943 -20.44587 39140 ft 515 kts 278°
2026-04-25 02:51 58.55092 -20.58047 39146 ft 516 kts 278°
2026-04-25 02:52 58.56241 -20.71599 39144 ft 516 kts 278°
2026-04-25 02:52 58.57377 -20.85178 39143 ft 515 kts 278°
2026-04-25 02:53 58.58494 -20.98734 39140 ft 515 kts 278°
2026-04-25 02:53 58.59599 -21.12319 39164 ft 516 kts 278°
2026-04-25 02:54 58.60692 -21.25940 39138 ft 519 kts 278°
2026-04-25 02:54 58.61776 -21.39645 39142 ft 520 kts 277°
2026-04-25 02:55 58.62847 -21.53375 39141 ft 520 kts 277°
2026-04-25 02:55 58.63902 -21.67099 39139 ft 519 kts 277°
2026-04-25 02:56 58.64938 -21.80770 39129 ft 517 kts 277°
2026-04-25 02:56 58.65953 -21.94370 39138 ft 518 kts 277°
2026-04-25 02:57 58.66963 -22.08106 39136 ft 520 kts 277°
2026-04-25 02:57 58.67961 -22.21871 39127 ft 520 kts 277°
2026-04-25 02:58 58.68943 -22.35643 39136 ft 520 kts 277°
2026-04-25 02:58 58.69912 -22.49431 39128 ft 520 kts 277°
2026-04-25 02:59 58.70866 -22.63232 39137 ft 521 kts 276°
2026-04-25 02:59 58.71808 -22.77086 39123 ft 523 kts 276°
2026-04-25 03:00 58.72738 -22.90975 39131 ft 522 kts 276°
2026-04-25 03:00 58.73649 -23.04817 39127 ft 521 kts 276°
2026-04-25 03:01 58.74538 -23.18561 39133 ft 521 kts 276°
2026-04-25 03:01 58.75418 -23.32391 39150 ft 521 kts 276°
2026-04-25 03:02 58.76287 -23.46296 39127 ft 524 kts 276°
2026-04-25 03:02 58.77143 -23.60244 39120 ft 524 kts 275°
2026-04-25 03:03 58.77984 -23.74202 39122 ft 524 kts 275°
2026-04-25 03:03 58.78811 -23.88173 39125 ft 524 kts 275°
2026-04-25 03:04 58.79623 -24.02150 39108 ft 524 kts 275°
2026-04-25 03:04 58.80418 -24.16103 39124 ft 524 kts 275°
2026-04-25 03:05 58.81583 -24.37081 39124 ft 524 kts 275°
2026-04-25 03:05 58.82336 -24.50972 39121 ft 524 kts 275°
2026-04-25 03:06 58.83079 -24.64974 39123 ft 524 kts 274°
2026-04-25 03:06 58.83808 -24.78981 39144 ft 524 kts 274°
2026-04-25 03:07 58.84521 -24.93007 39125 ft 525 kts 274°
2026-04-25 03:07 58.85221 -25.07062 39113 ft 526 kts 274°
2026-04-25 03:08 58.85902 -25.21050 39109 ft 526 kts 274°
2026-04-25 03:08 58.86570 -25.35085 39120 ft 523 kts 274°
2026-04-25 03:09 58.87222 -25.49109 39120 ft 523 kts 274°
2026-04-25 03:09 58.87857 -25.63120 39124 ft 524 kts 273°
2026-04-25 03:10 58.88480 -25.77189 39125 ft 525 kts 273°
2026-04-25 03:10 58.89088 -25.91268 39126 ft 525 kts 273°
2026-04-25 03:11 58.89680 -26.05351 39119 ft 525 kts 273°
2026-04-25 03:11 58.90256 -26.19413 39127 ft 525 kts 272°
2026-04-25 03:12 58.90814 -26.33406 39119 ft 525 kts 272°
2026-04-25 03:12 58.91361 -26.47515 39118 ft 526 kts 272°
2026-04-25 03:13 58.91893 -26.61621 39115 ft 526 kts 272°
2026-04-25 03:13 58.92410 -26.75748 39129 ft 526 kts 272°
2026-04-25 03:14 58.92911 -26.89883 39121 ft 526 kts 272°
2026-04-25 03:14 58.93397 -27.04011 39122 ft 526 kts 272°
2026-04-25 03:15 58.93867 -27.18154 39118 ft 526 kts 271°
2026-04-25 03:15 58.94322 -27.32293 39119 ft 526 kts 271°
2026-04-25 03:16 58.94762 -27.46442 39117 ft 526 kts 271°
2026-04-25 03:16 58.95186 -27.60598 39111 ft 526 kts 271°
2026-04-25 03:17 58.95594 -27.74721 39120 ft 524 kts 271°
2026-04-25 03:17 58.95986 -27.88829 39114 ft 525 kts 271°
2026-04-25 03:18 58.96360 -28.02871 39108 ft 525 kts 271°
2026-04-25 03:18 58.96723 -28.17029 39118 ft 525 kts 271°
2026-04-25 03:19 58.97069 -28.31153 39119 ft 525 kts 270°
2026-04-25 03:19 58.97400 -28.45284 39113 ft 525 kts 270°
2026-04-25 03:20 58.97715 -28.59422 39114 ft 525 kts 270°
2026-04-25 03:20 58.98013 -28.73475 39117 ft 525 kts 270°
2026-04-25 03:21 58.98298 -28.87630 39111 ft 525 kts 270°
2026-04-25 03:21 58.98568 -29.01756 39111 ft 524 kts 270°
2026-04-25 03:22 58.98821 -29.15865 39119 ft 523 kts 270°
2026-04-25 03:22 58.99059 -29.29963 39120 ft 524 kts 269°
2026-04-25 03:23 58.99281 -29.44107 39115 ft 524 kts 269°
2026-04-25 03:23 58.99489 -29.58246 39114 ft 524 kts 269°
2026-04-25 03:24 58.99681 -29.72376 39112 ft 524 kts 269°
2026-04-25 03:24 58.99858 -29.86518 39109 ft 524 kts 269°
2026-04-25 03:25 59.00020 -30.00662 39113 ft 524 kts 269°
2026-04-25 03:25 58.99973 -30.14687 39113 ft 522 kts 265°
2026-04-25 03:26 58.99726 -30.28759 39106 ft 522 kts 265°
2026-04-25 03:26 58.99482 -30.42830 39106 ft 522 kts 265°
2026-04-25 03:27 58.99260 -30.56911 39111 ft 522 kts 265°
2026-04-25 03:27 58.99038 -30.70994 39119 ft 522 kts 265°
2026-04-25 03:28 58.98803 -30.85039 39110 ft 521 kts 265°
2026-04-25 03:28 58.98551 -30.99083 39108 ft 521 kts 265°
2026-04-25 03:29 58.98283 -31.13139 39105 ft 521 kts 265°
2026-04-25 03:29 58.98001 -31.27074 39110 ft 521 kts 265°
2026-04-25 03:30 58.97702 -31.41131 39116 ft 521 kts 265°
2026-04-25 03:30 58.97389 -31.55161 39107 ft 520 kts 265°
2026-04-25 03:31 58.97060 -31.69171 39110 ft 519 kts 264°
2026-04-25 03:31 58.96717 -31.83164 39111 ft 519 kts 264°
2026-04-25 03:32 58.96361 -31.97053 39108 ft 519 kts 264°
2026-04-25 03:32 58.95988 -32.11019 39108 ft 519 kts 264°
2026-04-25 03:33 58.95600 -32.24993 39111 ft 519 kts 264°
2026-04-25 03:33 58.95197 -32.38974 39110 ft 519 kts 264°
2026-04-25 03:34 58.94848 -32.50671 39105 ft 519 kts 264°
2026-04-25 03:34 58.94421 -32.64528 39105 ft 519 kts 264°
2026-04-25 03:35 58.93975 -32.78479 39105 ft 518 kts 264°
2026-04-25 03:35 58.93515 -32.92414 39110 ft 518 kts 264°
2026-04-25 03:36 58.93041 -33.06323 39105 ft 518 kts 264°
2026-04-25 03:36 58.92553 -33.20221 39105 ft 517 kts 263°
2026-04-25 03:37 58.91965 -33.36380 39107 ft 517 kts 263°
2026-04-25 03:37 58.91529 -33.48027 39107 ft 517 kts 263°
2026-04-25 03:38 58.90999 -33.61824 39109 ft 517 kts 263°
2026-04-25 03:38 58.90450 -33.75713 39105 ft 517 kts 263°
2026-04-25 03:39 58.89887 -33.89587 39111 ft 517 kts 263°
2026-04-25 03:39 58.89308 -34.03478 39110 ft 517 kts 263°
2026-04-25 03:40 58.88716 -34.17329 39101 ft 516 kts 263°
2026-04-25 03:40 58.88110 -34.31150 39114 ft 515 kts 263°
2026-04-25 03:41 58.87491 -34.44943 39107 ft 515 kts 263°
2026-04-25 03:41 58.86860 -34.58650 39112 ft 515 kts 262°
2026-04-25 03:42 58.86211 -34.72435 39104 ft 515 kts 262°
2026-04-25 03:42 58.85547 -34.86221 39110 ft 515 kts 262°
2026-04-25 03:43 58.84869 -34.99995 39119 ft 515 kts 262°
2026-04-25 03:43 58.84176 -35.13761 39105 ft 515 kts 262°
2026-04-25 03:44 58.83468 -35.27529 39107 ft 515 kts 262°
2026-04-25 03:44 58.82746 -35.41279 39109 ft 515 kts 262°
2026-04-25 03:45 58.82014 -35.54941 39106 ft 515 kts 262°
2026-04-25 03:45 58.81263 -35.68682 39104 ft 515 kts 262°
2026-04-25 03:46 58.80496 -35.82439 39103 ft 516 kts 262°
2026-04-25 03:46 58.79713 -35.96209 39105 ft 516 kts 262°
2026-04-25 03:47 58.78915 -36.09982 39108 ft 516 kts 262°
2026-04-25 03:47 58.78109 -36.23649 39100 ft 516 kts 261°
2026-04-25 03:48 58.77283 -36.37384 39102 ft 516 kts 261°
2026-04-25 03:48 58.76442 -36.51125 39105 ft 517 kts 261°
2026-04-25 03:49 58.75585 -36.64878 39105 ft 517 kts 261°
2026-04-25 03:49 58.74714 -36.78627 39099 ft 516 kts 261°
2026-04-25 03:50 58.73831 -36.92327 39102 ft 516 kts 261°
2026-04-25 03:50 58.72932 -37.06028 39102 ft 515 kts 261°
2026-04-25 03:51 58.72020 -37.19707 39108 ft 516 kts 261°
2026-04-25 03:51 58.71093 -37.33393 39095 ft 516 kts 261°
2026-04-25 03:52 58.70150 -37.47082 39105 ft 516 kts 261°
2026-04-25 03:52 58.69193 -37.60768 39100 ft 516 kts 261°
2026-04-25 03:53 58.68227 -37.74357 39097 ft 516 kts 260°
2026-04-25 03:53 58.67242 -37.88014 39091 ft 516 kts 261°
2026-04-25 03:54 58.66238 -38.01708 39106 ft 517 kts 261°
2026-04-25 03:54 58.65223 -38.15363 39099 ft 516 kts 260°
2026-04-25 03:55 58.64193 -38.29020 39097 ft 516 kts 260°
2026-04-25 03:55 58.63147 -38.42674 39091 ft 516 kts 260°
2026-04-25 03:56 58.62094 -38.56233 39113 ft 516 kts 260°
2026-04-25 03:56 58.61020 -38.69867 39097 ft 517 kts 260°
2026-04-25 03:57 58.59931 -38.83502 39109 ft 517 kts 260°
2026-04-25 03:57 58.58828 -38.97133 39092 ft 517 kts 260°
2026-04-25 03:58 58.57710 -39.10751 39103 ft 517 kts 259°
2026-04-25 03:58 58.56577 -39.24370 39108 ft 517 kts 259°
2026-04-25 03:59 58.55438 -39.37873 39099 ft 518 kts 259°
2026-04-25 03:59 58.54276 -39.51476 39106 ft 518 kts 259°
2026-04-25 04:00 58.53099 -39.65077 39106 ft 518 kts 259°
2026-04-25 04:00 58.51908 -39.78673 39103 ft 518 kts 259°
2026-04-25 04:01 58.50703 -39.92251 39109 ft 518 kts 259°
2026-04-25 04:01 58.49520 -40.05868 39102 ft 519 kts 261°
2026-04-25 04:02 58.48702 -40.19515 39099 ft 520 kts 263°
2026-04-25 04:02 58.47959 -40.33345 39094 ft 520 kts 263°
2026-04-25 04:03 58.47154 -40.47069 39090 ft 520 kts 262°
2026-04-25 04:03 58.46300 -40.60710 39097 ft 520 kts 262°
2026-04-25 04:04 58.45415 -40.74448 39100 ft 521 kts 262°
2026-04-25 04:04 58.44516 -40.88183 39098 ft 521 kts 262°
2026-04-25 04:05 58.43603 -41.01930 39107 ft 522 kts 262°
2026-04-25 04:05 58.42677 -41.15656 39107 ft 522 kts 262°
2026-04-25 04:06 58.41737 -41.29376 39099 ft 522 kts 262°
2026-04-25 04:06 58.40779 -41.43121 39115 ft 522 kts 262°
2026-04-25 04:07 58.39814 -41.56753 39109 ft 522 kts 262°
2026-04-25 04:07 58.38828 -41.70469 39112 ft 522 kts 262°
2026-04-25 04:08 58.37827 -41.84173 39102 ft 522 kts 261°
2026-04-25 04:08 58.36812 -41.97877 39116 ft 522 kts 261°
2026-04-25 04:09 58.35781 -42.11578 39117 ft 523 kts 261°
2026-04-25 04:09 58.34736 -42.25273 39117 ft 524 kts 261°
2026-04-25 04:10 58.33666 -42.38996 39130 ft 524 kts 261°
2026-04-25 04:10 58.32589 -42.52723 39118 ft 524 kts 261°
2026-04-25 04:11 58.30949 -42.73307 39119 ft 524 kts 261°
2026-04-25 04:12 58.29851 -42.86936 39138 ft 526 kts 260°
2026-04-25 04:12 58.28722 -43.00702 39126 ft 528 kts 260°
2026-04-25 04:13 58.27562 -43.14484 39120 ft 528 kts 259°
2026-04-25 04:13 58.26378 -43.28272 39125 ft 528 kts 259°
2026-04-25 04:14 58.25190 -43.42038 39133 ft 528 kts 260°
2026-04-25 04:14 58.24001 -43.55715 39132 ft 529 kts 259°
2026-04-25 04:15 58.22803 -43.69499 39137 ft 529 kts 259°
2026-04-25 04:15 58.21578 -43.83275 39137 ft 528 kts 259°
2026-04-25 04:16 58.20322 -43.97023 39129 ft 529 kts 259°
2026-04-25 04:16 58.19075 -44.10756 39128 ft 529 kts 259°
2026-04-25 04:17 58.17807 -44.24492 39139 ft 529 kts 258°
2026-04-25 04:17 58.16513 -44.38129 39136 ft 528 kts 258°
2026-04-25 04:18 58.15216 -44.51834 39130 ft 527 kts 258°
2026-04-25 04:18 58.13915 -44.65502 39144 ft 528 kts 258°
2026-04-25 04:19 58.12578 -44.79166 39139 ft 528 kts 258°
2026-04-25 04:19 58.11233 -44.92818 39133 ft 528 kts 258°
2026-04-25 04:20 58.09872 -45.06483 39141 ft 527 kts 258°
2026-04-25 04:20 58.08514 -45.20095 39147 ft 527 kts 258°
2026-04-25 04:21 58.07125 -45.33686 39137 ft 528 kts 258°
2026-04-25 04:21 58.05741 -45.47218 39148 ft 528 kts 257°
2026-04-25 04:22 58.04325 -45.60800 39138 ft 526 kts 257°
2026-04-25 04:22 58.02880 -45.74331 39146 ft 525 kts 257°
2026-04-25 04:23 58.01446 -45.87860 39139 ft 526 kts 257°
2026-04-25 04:23 58.00244 -45.99092 39149 ft 526 kts 257°
2026-04-25 04:24 57.98789 -46.12572 39137 ft 525 kts 257°
2026-04-25 04:24 57.97310 -46.26081 39139 ft 523 kts 257°
2026-04-25 04:25 57.95822 -46.39526 39151 ft 524 kts 257°
2026-04-25 04:25 57.94312 -46.52960 39150 ft 524 kts 257°
2026-04-25 04:26 57.92794 -46.66367 39148 ft 524 kts 256°
2026-04-25 04:26 57.91256 -46.79775 39152 ft 524 kts 257°
2026-04-25 04:27 57.89729 -46.93099 39151 ft 524 kts 256°
2026-04-25 04:27 57.88163 -47.06486 39144 ft 523 kts 256°
2026-04-25 04:28 57.86590 -47.19849 39145 ft 523 kts 256°
2026-04-25 04:28 57.84995 -47.33177 39146 ft 523 kts 256°
2026-04-25 04:29 57.83391 -47.46478 39148 ft 523 kts 256°
2026-04-25 04:29 57.81786 -47.59790 39140 ft 522 kts 256°
2026-04-25 04:30 57.80170 -47.72988 39151 ft 522 kts 256°
2026-04-25 04:30 57.78536 -47.86261 39158 ft 522 kts 256°
2026-04-25 04:31 57.76884 -47.99511 39149 ft 522 kts 256°
2026-04-25 04:31 57.75214 -48.12761 39163 ft 522 kts 256°
2026-04-25 04:32 57.73537 -48.25980 39162 ft 523 kts 256°
2026-04-25 04:32 57.71851 -48.39205 39152 ft 522 kts 256°
2026-04-25 04:33 57.70143 -48.52401 39151 ft 521 kts 256°
2026-04-25 04:33 57.68417 -48.65569 39153 ft 520 kts 256°
2026-04-25 04:34 57.66690 -48.78721 39157 ft 521 kts 256°
2026-04-25 04:34 57.64944 -48.91881 39154 ft 522 kts 256°
2026-04-25 04:35 57.63195 -49.04921 39161 ft 522 kts 256°
2026-04-25 04:35 57.61410 -49.18126 39164 ft 521 kts 255°
2026-04-25 04:36 57.59638 -49.31128 39147 ft 521 kts 256°
2026-04-25 04:36 57.57849 -49.44224 39158 ft 521 kts 255°
2026-04-25 04:37 57.56035 -49.57292 39158 ft 520 kts 255°
2026-04-25 04:37 57.54218 -49.70335 39159 ft 520 kts 255°
2026-04-25 04:38 57.52376 -49.83377 39160 ft 521 kts 255°
2026-04-25 04:38 57.50515 -49.96392 39160 ft 521 kts 253°
2026-04-25 04:39 57.47879 -50.08931 39156 ft 520 kts 246°
2026-04-25 04:39 57.44942 -50.21202 39157 ft 521 kts 245°
2026-04-25 04:40 57.41948 -50.33441 39160 ft 521 kts 245°
2026-04-25 04:40 57.38948 -50.45656 39162 ft 520 kts 245°
2026-04-25 04:41 57.35963 -50.57781 39154 ft 521 kts 245°
2026-04-25 04:41 57.32954 -50.69991 39149 ft 521 kts 245°
2026-04-25 04:42 57.29937 -50.82165 39148 ft 521 kts 245°
2026-04-25 04:42 57.26906 -50.94316 39146 ft 521 kts 245°
2026-04-25 04:43 57.23861 -51.06455 39144 ft 521 kts 245°
2026-04-25 04:43 57.20799 -51.18593 39140 ft 521 kts 244°
2026-04-25 04:44 57.17746 -51.30629 39148 ft 521 kts 244°
2026-04-25 04:44 57.14662 -51.42720 39130 ft 521 kts 244°
2026-04-25 04:45 57.11568 -51.54787 39131 ft 521 kts 244°
2026-04-25 04:45 57.08462 -51.66833 39129 ft 521 kts 244°
2026-04-25 04:46 57.05342 -51.78869 39128 ft 521 kts 244°
2026-04-25 04:46 57.02215 -51.90871 39124 ft 521 kts 244°
2026-04-25 04:47 56.99074 -52.02859 39116 ft 521 kts 244°
2026-04-25 04:47 56.95946 -52.14736 39126 ft 521 kts 244°
2026-04-25 04:48 56.92786 -52.26668 39119 ft 521 kts 244°
2026-04-25 04:48 56.89616 -52.38580 39118 ft 521 kts 244°
2026-04-25 04:49 56.86432 -52.50477 39116 ft 521 kts 243°
2026-04-25 04:49 56.83237 -52.62356 39124 ft 521 kts 243°
2026-04-25 04:50 56.80032 -52.74209 39120 ft 521 kts 243°
2026-04-25 04:50 56.76813 -52.86051 39119 ft 521 kts 243°
2026-04-25 04:51 56.73580 -52.97884 39109 ft 521 kts 243°
2026-04-25 04:51 56.70336 -53.09695 39120 ft 521 kts 243°
2026-04-25 04:52 56.67081 -53.21487 39117 ft 521 kts 243°
2026-04-25 04:52 56.63820 -53.33238 39098 ft 521 kts 243°
2026-04-25 04:53 56.60547 -53.44973 39115 ft 521 kts 243°
2026-04-25 04:53 56.57261 -53.56693 39104 ft 520 kts 243°
2026-04-25 04:54 56.53990 -53.68303 39113 ft 521 kts 243°
2026-04-25 04:54 56.50681 -53.79986 39112 ft 521 kts 243°
2026-04-25 04:55 56.47363 -53.91644 39109 ft 521 kts 243°
2026-04-25 04:55 56.44032 -54.03289 39111 ft 521 kts 243°
2026-04-25 04:56 56.40693 -54.14905 39118 ft 521 kts 242°
2026-04-25 04:56 56.37342 -54.26500 39116 ft 521 kts 242°
2026-04-25 04:57 56.33978 -54.38086 39116 ft 521 kts 242°
2026-04-25 04:57 56.30624 -54.49578 39108 ft 521 kts 242°
2026-04-25 04:58 56.27242 -54.61111 39094 ft 521 kts 242°
2026-04-25 04:58 56.23849 -54.72623 39110 ft 520 kts 242°
2026-04-25 04:59 56.20449 -54.84103 39110 ft 520 kts 242°
2026-04-25 04:59 56.17045 -54.95542 39107 ft 519 kts 242°
2026-04-25 05:00 56.13624 -55.06979 39105 ft 520 kts 242°
2026-04-25 05:00 56.10198 -55.18381 39120 ft 520 kts 242°
2026-04-25 05:01 56.06756 -55.29779 39109 ft 520 kts 242°
2026-04-25 05:01 56.03310 -55.41135 39108 ft 519 kts 242°
2026-04-25 05:02 55.99873 -55.52405 39108 ft 519 kts 241°
2026-04-25 05:02 55.96408 -55.63716 39109 ft 519 kts 241°
2026-04-25 05:03 55.92931 -55.75011 39111 ft 519 kts 241°
2026-04-25 05:03 55.89442 -55.86290 39116 ft 519 kts 241°
2026-04-25 05:04 55.85944 -55.97547 39108 ft 519 kts 241°
2026-04-25 05:04 55.82434 -56.08790 39106 ft 519 kts 241°
2026-04-25 05:05 55.78931 -56.19955 39115 ft 519 kts 241°
2026-04-25 05:05 55.75401 -56.31156 39113 ft 519 kts 241°
2026-04-25 05:06 55.71862 -56.42331 39113 ft 519 kts 241°
2026-04-25 05:06 55.68315 -56.53478 39113 ft 518 kts 241°
2026-04-25 05:07 55.64761 -56.64599 39126 ft 518 kts 240°
2026-04-25 05:07 55.61196 -56.75699 39124 ft 518 kts 240°
2026-04-25 05:08 55.57620 -56.86786 39124 ft 518 kts 240°
2026-04-25 05:08 55.54647 -56.95969 39162 ft 518 kts 240°
2026-04-25 05:08 55.52605 -57.03673 39349 ft 517 kts 249°
2026-04-25 05:09 55.51718 -57.07570 39453 ft 516 kts 249°
2026-04-25 05:09 55.50418 -57.13492 39581 ft 516 kts 250°
2026-04-25 05:09 55.48740 -57.21337 39758 ft 516 kts 250°
2026-04-25 05:09 55.47479 -57.27268 39884 ft 516 kts 250°
2026-04-25 05:10 55.46628 -57.31266 39982 ft 516 kts 250°
2026-04-25 05:10 55.44087 -57.43105 40134 ft 517 kts 250°
2026-04-25 05:11 55.41520 -57.54931 40145 ft 516 kts 250°
2026-04-25 05:11 55.38938 -57.66733 40150 ft 517 kts 249°
2026-04-25 05:12 55.35060 -57.84332 40161 ft 517 kts 249°
2026-04-25 05:12 55.32451 -57.96095 40160 ft 517 kts 249°
2026-04-25 05:13 55.29834 -58.07830 40161 ft 516 kts 249°
2026-04-25 05:13 55.27203 -58.19558 40177 ft 516 kts 249°
2026-04-25 05:14 55.24560 -58.31273 40180 ft 516 kts 249°
2026-04-25 05:15 55.20572 -58.48830 40180 ft 516 kts 249°
2026-04-25 05:15 55.17902 -58.60507 40193 ft 516 kts 249°
2026-04-25 05:16 55.15239 -58.72086 40201 ft 516 kts 249°
2026-04-25 05:16 55.12551 -58.83709 40202 ft 516 kts 248°
2026-04-25 05:17 55.09851 -58.95323 40204 ft 516 kts 248°
2026-04-25 05:17 55.07138 -59.06927 40213 ft 516 kts 248°
2026-04-25 05:18 55.04415 -59.18512 40218 ft 516 kts 248°
2026-04-25 05:18 55.01679 -59.30089 40224 ft 516 kts 248°
2026-04-25 05:19 54.98930 -59.41661 40222 ft 517 kts 248°
2026-04-25 05:19 54.96168 -59.53227 40224 ft 517 kts 248°
2026-04-25 05:20 54.93397 -59.64765 40228 ft 516 kts 248°
2026-04-25 05:20 54.90617 -59.76280 40237 ft 517 kts 248°
2026-04-25 05:21 54.87838 -59.87730 40229 ft 517 kts 248°
2026-04-25 05:21 54.85033 -59.99228 40241 ft 517 kts 248°
2026-04-25 05:22 54.82217 -60.10711 40249 ft 517 kts 248°
2026-04-25 05:22 54.79387 -60.22188 40247 ft 518 kts 247°
2026-04-25 05:23 54.76550 -60.33636 40254 ft 517 kts 247°
2026-04-25 05:23 54.73695 -60.45098 40254 ft 517 kts 247°
2026-04-25 05:24 54.70834 -60.56522 40253 ft 517 kts 247°
2026-04-25 05:24 54.67966 -60.67914 40251 ft 517 kts 247°
2026-04-25 05:25 54.65083 -60.79310 40251 ft 518 kts 247°
2026-04-25 05:25 54.62186 -60.90703 40258 ft 519 kts 247°
2026-04-25 05:26 54.59268 -61.02097 40256 ft 520 kts 246°
2026-04-25 05:26 54.56343 -61.13478 40265 ft 520 kts 246°
2026-04-25 05:27 54.53417 -61.24796 40264 ft 520 kts 246°
2026-04-25 05:27 54.50475 -61.36178 40265 ft 520 kts 246°
2026-04-25 05:28 54.47528 -61.47518 40271 ft 519 kts 246°
2026-04-25 05:28 54.44572 -61.58781 40264 ft 516 kts 246°
2026-04-25 05:29 54.41603 -61.70021 40265 ft 516 kts 246°
2026-04-25 05:29 54.38636 -61.81216 40271 ft 516 kts 246°
2026-04-25 05:30 54.35656 -61.92417 40273 ft 516 kts 246°
2026-04-25 05:30 54.32688 -62.03515 40278 ft 516 kts 246°
2026-04-25 05:31 54.29685 -62.14695 40271 ft 517 kts 246°
2026-04-25 05:31 54.26664 -62.25881 40272 ft 517 kts 246°
2026-04-25 05:32 54.23640 -62.37027 40267 ft 517 kts 246°
2026-04-25 05:32 54.20602 -62.48170 40264 ft 517 kts 245°
2026-04-25 05:33 54.17553 -62.59297 40275 ft 517 kts 245°
2026-04-25 05:33 54.14496 -62.70403 40273 ft 517 kts 245°
2026-04-25 05:34 54.11447 -62.81422 40277 ft 517 kts 245°
2026-04-25 05:34 54.08367 -62.92503 40277 ft 517 kts 245°
2026-04-25 05:35 54.05276 -63.03572 40272 ft 517 kts 245°
2026-04-25 05:35 54.02182 -63.14596 40279 ft 516 kts 245°
2026-04-25 05:36 53.99085 -63.25580 40274 ft 515 kts 245°
2026-04-25 05:36 53.95981 -63.36537 40267 ft 515 kts 245°
2026-04-25 05:37 53.92858 -63.47511 40276 ft 516 kts 245°
2026-04-25 05:37 53.89746 -63.58393 40273 ft 516 kts 245°
2026-04-25 05:38 53.86601 -63.69340 40275 ft 517 kts 245°
2026-04-25 05:38 53.83446 -63.80272 40265 ft 517 kts 245°
2026-04-25 05:39 53.80276 -63.91203 40250 ft 517 kts 245°
2026-04-25 05:39 53.77093 -64.02126 40237 ft 517 kts 244°
2026-04-25 05:40 53.73905 -64.13019 40229 ft 517 kts 244°
2026-04-25 05:40 53.70708 -64.23890 40221 ft 517 kts 244°
2026-04-25 05:41 53.67500 -64.34753 40227 ft 517 kts 244°
2026-04-25 05:41 53.64295 -64.45554 40239 ft 517 kts 244°
2026-04-25 05:42 53.61065 -64.56389 40256 ft 517 kts 244°
2026-04-25 05:42 53.57826 -64.67204 40273 ft 517 kts 244°
2026-04-25 05:43 53.54577 -64.78005 40283 ft 516 kts 244°
2026-04-25 05:43 53.51324 -64.88769 40289 ft 516 kts 244°
2026-04-25 05:44 53.48084 -64.99443 40279 ft 516 kts 244°
2026-04-25 05:44 53.44795 -65.10231 40284 ft 516 kts 244°
2026-04-25 05:45 53.41531 -65.20889 40294 ft 517 kts 244°
2026-04-25 05:45 53.38238 -65.31592 40292 ft 517 kts 243°
2026-04-25 05:46 53.34934 -65.42286 40288 ft 517 kts 243°
2026-04-25 05:46 53.31617 -65.52972 40288 ft 517 kts 243°
2026-04-25 05:47 53.28298 -65.63619 40289 ft 517 kts 243°
2026-04-25 05:47 53.24964 -65.74264 40284 ft 517 kts 243°
2026-04-25 05:48 53.21620 -65.84896 40291 ft 518 kts 243°
2026-04-25 05:48 53.18261 -65.95530 40287 ft 518 kts 243°
2026-04-25 05:49 53.14890 -66.06156 40287 ft 518 kts 243°
2026-04-25 05:49 53.11507 -66.16772 40290 ft 519 kts 243°
2026-04-25 05:50 53.08136 -66.27302 40285 ft 518 kts 243°
2026-04-25 05:50 53.04734 -66.37886 40283 ft 518 kts 243°
2026-04-25 05:51 53.01325 -66.48446 40290 ft 518 kts 243°
2026-04-25 05:51 52.97904 -66.58996 40241 ft 518 kts 242°
2026-04-25 05:52 52.94475 -66.69525 40207 ft 518 kts 242°
2026-04-25 05:52 52.91040 -66.80028 40212 ft 517 kts 242°
2026-04-25 05:53 52.87623 -66.90432 40205 ft 517 kts 242°
2026-04-25 05:53 52.84179 -67.00876 40227 ft 517 kts 242°
2026-04-25 05:54 52.80723 -67.11309 40240 ft 517 kts 242°
2026-04-25 05:54 52.75525 -67.26918 40270 ft 516 kts 242°
2026-04-25 05:55 52.72053 -67.37291 40292 ft 517 kts 242°
2026-04-25 05:55 52.68567 -67.47662 40289 ft 517 kts 242°
2026-04-25 05:56 52.65065 -67.58034 40289 ft 517 kts 242°
2026-04-25 05:56 52.62152 -67.66630 40294 ft 517 kts 242°
2026-04-25 05:57 52.58637 -67.76964 40295 ft 518 kts 242°
2026-04-25 05:57 52.55112 -67.87284 40295 ft 518 kts 241°
2026-04-25 05:58 52.51574 -67.97600 40282 ft 518 kts 241°
2026-04-25 05:58 52.48027 -68.07897 40283 ft 518 kts 241°
2026-04-25 05:59 52.44474 -68.18172 40291 ft 517 kts 241°
2026-04-25 05:59 52.40917 -68.28413 40291 ft 516 kts 241°
2026-04-25 06:00 52.37357 -68.38623 40295 ft 516 kts 241°
2026-04-25 06:00 52.33790 -68.48811 40290 ft 516 kts 241°
2026-04-25 06:01 52.30234 -68.58926 40292 ft 516 kts 241°
2026-04-25 06:01 52.26651 -68.69079 40291 ft 516 kts 241°
2026-04-25 06:02 52.23051 -68.79235 40289 ft 516 kts 240°
2026-04-25 06:02 52.19451 -68.89355 40289 ft 517 kts 240°
2026-04-25 06:03 52.15827 -68.99498 40292 ft 517 kts 240°
2026-04-25 06:03 52.12195 -69.09623 40292 ft 517 kts 240°
2026-04-25 06:04 52.08557 -69.19726 40292 ft 517 kts 240°
2026-04-25 06:04 52.04911 -69.29808 40292 ft 517 kts 240°
2026-04-25 06:05 52.01256 -69.39876 40287 ft 517 kts 240°
2026-04-25 06:05 51.97593 -69.49928 40289 ft 517 kts 240°
2026-04-25 06:06 51.93946 -69.59892 40291 ft 517 kts 240°
2026-04-25 06:06 51.90271 -69.69897 40292 ft 516 kts 240°
2026-04-25 06:07 51.86587 -69.79884 40295 ft 516 kts 240°
2026-04-25 06:07 51.82903 -69.89835 40295 ft 516 kts 240°
2026-04-25 06:08 51.79203 -69.99789 40289 ft 516 kts 240°
2026-04-25 06:08 51.75500 -70.09711 40290 ft 516 kts 240°
2026-04-25 06:09 51.71782 -70.19636 40290 ft 516 kts 239°
2026-04-25 06:09 51.68063 -70.29524 40281 ft 516 kts 240°
2026-04-25 06:10 51.64362 -70.39326 40286 ft 515 kts 239°
2026-04-25 06:10 51.60632 -70.49170 40280 ft 515 kts 240°
2026-04-25 06:11 51.56901 -70.58976 40289 ft 513 kts 239°
2026-04-25 06:11 51.53166 -70.68756 40279 ft 513 kts 239°
2026-04-25 06:12 51.49421 -70.78526 40282 ft 513 kts 239°
2026-04-25 06:12 51.45671 -70.88271 40284 ft 513 kts 239°
2026-04-25 06:13 51.41936 -70.97940 40269 ft 513 kts 239°
2026-04-25 06:14 51.36283 -71.12505 40285 ft 513 kts 239°
2026-04-25 06:14 51.32506 -71.22190 40279 ft 513 kts 239°
2026-04-25 06:15 51.28717 -71.31871 40277 ft 513 kts 239°
2026-04-25 06:15 51.24922 -71.41528 40273 ft 513 kts 239°
2026-04-25 06:16 51.21126 -71.51155 40277 ft 512 kts 239°
2026-04-25 06:16 51.17321 -71.60769 40273 ft 512 kts 239°
2026-04-25 06:17 51.13514 -71.70350 40267 ft 512 kts 239°
2026-04-25 06:17 51.09719 -71.79868 40268 ft 512 kts 239°
2026-04-25 06:18 51.05806 -71.89336 40267 ft 512 kts 236°
2026-04-25 06:18 51.01559 -71.98430 40267 ft 512 kts 234°
2026-04-25 06:19 50.97260 -72.07481 40267 ft 512 kts 235°
2026-04-25 06:19 50.93011 -72.16551 40265 ft 512 kts 235°
2026-04-25 06:20 50.88809 -72.25582 40265 ft 512 kts 235°
2026-04-25 06:20 50.84580 -72.34659 40267 ft 512 kts 235°
2026-04-25 06:21 50.80342 -72.43719 40263 ft 512 kts 235°
2026-04-25 06:21 50.76090 -72.52773 40255 ft 512 kts 235°
2026-04-25 06:22 50.71837 -72.61796 40261 ft 512 kts 236°
2026-04-25 06:22 50.67580 -72.70796 40253 ft 512 kts 236°
2026-04-25 06:23 50.63308 -72.79797 40256 ft 512 kts 235°
2026-04-25 06:23 50.59034 -72.88773 40248 ft 512 kts 235°
2026-04-25 06:24 50.54751 -72.97734 40243 ft 512 kts 236°
2026-04-25 06:24 50.50462 -73.06676 40246 ft 512 kts 236°
2026-04-25 06:25 50.46173 -73.15592 40241 ft 512 kts 236°
2026-04-25 06:25 50.41905 -73.24433 40241 ft 512 kts 236°
2026-04-25 06:26 50.37603 -73.33314 40234 ft 512 kts 236°
2026-04-25 06:26 50.33288 -73.42189 40235 ft 512 kts 236°
2026-04-25 06:27 50.28969 -73.51047 40233 ft 512 kts 236°
2026-04-25 06:27 50.24646 -73.59881 40227 ft 512 kts 235°
2026-04-25 06:28 50.20313 -73.68706 40232 ft 512 kts 235°
2026-04-25 06:28 50.15974 -73.77512 40215 ft 511 kts 236°
2026-04-25 06:29 50.11637 -73.86287 40224 ft 511 kts 235°
2026-04-25 06:29 50.07294 -73.95043 40224 ft 510 kts 235°
2026-04-25 06:30 50.02974 -74.03726 40218 ft 510 kts 235°
2026-04-25 06:30 49.98615 -74.12456 40229 ft 511 kts 235°
2026-04-25 06:31 49.94249 -74.21174 40220 ft 511 kts 235°
2026-04-25 06:31 49.89881 -74.29865 40175 ft 510 kts 235°
2026-04-25 06:32 49.85508 -74.38538 40157 ft 511 kts 235°
2026-04-25 06:32 49.80488 -74.46364 40132 ft 516 kts 219°
2026-04-25 06:32 49.77430 -74.49291 40146 ft 517 kts 208°
2026-04-25 06:33 49.74131 -74.51323 40144 ft 519 kts 197°
2026-04-25 06:33 49.67099 -74.53902 40151 ft 521 kts 193°
2026-04-25 06:34 49.59988 -74.56063 40158 ft 521 kts 192°
2026-04-25 06:34 49.52881 -74.58230 40187 ft 521 kts 193°
2026-04-25 06:35 49.45740 -74.60472 40195 ft 523 kts 193°
2026-04-25 06:35 49.38612 -74.62732 40188 ft 523 kts 193°
2026-04-25 06:36 49.31484 -74.64990 40201 ft 523 kts 193°
2026-04-25 06:36 49.24358 -74.67238 40197 ft 522 kts 193°
2026-04-25 06:37 49.17239 -74.69477 40184 ft 522 kts 193°
2026-04-25 06:37 49.10169 -74.71692 40188 ft 522 kts 193°
2026-04-25 06:38 49.03015 -74.73928 40187 ft 521 kts 193°
2026-04-25 06:38 48.95952 -74.76129 40186 ft 521 kts 193°
2026-04-25 06:39 48.88845 -74.78337 40188 ft 520 kts 193°
2026-04-25 06:39 48.81750 -74.80534 40182 ft 520 kts 193°
2026-04-25 06:40 48.74662 -74.82724 40183 ft 520 kts 193°
2026-04-25 06:40 48.67575 -74.84908 40176 ft 519 kts 193°
2026-04-25 06:41 48.60530 -74.87071 40187 ft 519 kts 193°
2026-04-25 06:41 48.53434 -74.89245 40177 ft 519 kts 193°
2026-04-25 06:42 48.46342 -74.91410 40177 ft 519 kts 193°
2026-04-25 06:42 48.39256 -74.93568 40173 ft 519 kts 193°
2026-04-25 06:43 48.32174 -74.95719 40174 ft 519 kts 193°
2026-04-25 06:43 48.25092 -74.97863 40173 ft 519 kts 194°
2026-04-25 06:44 48.18043 -74.99991 40171 ft 519 kts 194°
2026-04-25 06:44 48.10952 -75.02126 40170 ft 519 kts 194°
2026-04-25 06:45 48.05016 -75.03908 40169 ft 520 kts 194°
2026-04-25 06:45 47.97917 -75.06035 40168 ft 521 kts 194°
2026-04-25 06:46 47.90848 -75.08147 40167 ft 521 kts 194°
2026-04-25 06:46 47.83731 -75.10267 40165 ft 521 kts 194°
2026-04-25 06:47 47.76623 -75.12378 40163 ft 521 kts 194°
2026-04-25 06:47 47.69511 -75.14485 40164 ft 521 kts 194°
2026-04-25 06:48 47.62398 -75.16586 40160 ft 521 kts 194°
2026-04-25 06:48 47.55278 -75.18683 40160 ft 521 kts 194°
2026-04-25 06:49 47.48202 -75.20761 40160 ft 521 kts 194°
2026-04-25 06:49 47.41068 -75.22851 40158 ft 523 kts 194°
2026-04-25 06:50 47.33910 -75.24943 40160 ft 524 kts 194°
2026-04-25 06:50 47.26754 -75.27027 40138 ft 524 kts 194°
2026-04-25 06:51 47.19579 -75.29110 40151 ft 526 kts 195°
2026-04-25 06:51 47.12432 -75.31182 40155 ft 527 kts 195°
2026-04-25 06:52 47.05229 -75.33263 40145 ft 527 kts 195°
2026-04-25 06:52 46.97967 -75.35356 40147 ft 529 kts 195°
2026-04-25 06:53 46.90745 -75.37432 40147 ft 529 kts 195°
2026-04-25 06:53 46.83561 -75.39489 40133 ft 530 kts 195°
2026-04-25 06:54 46.76323 -75.41558 40141 ft 531 kts 195°
2026-04-25 06:54 46.69069 -75.43625 40135 ft 531 kts 195°
2026-04-25 06:55 46.61817 -75.45687 40129 ft 531 kts 195°
2026-04-25 06:55 46.54552 -75.47746 40135 ft 532 kts 195°
2026-04-25 06:56 46.47289 -75.49799 40132 ft 532 kts 195°
2026-04-25 06:56 46.40022 -75.51847 40130 ft 532 kts 196°
2026-04-25 06:57 46.32755 -75.53890 40127 ft 532 kts 196°
2026-04-25 06:57 46.25478 -75.55930 40105 ft 532 kts 196°
2026-04-25 06:58 46.18206 -75.57963 40121 ft 532 kts 196°
2026-04-25 06:58 46.10944 -75.59988 40118 ft 532 kts 196°
2026-04-25 06:59 46.03682 -75.62008 40108 ft 531 kts 196°
2026-04-25 06:59 45.96472 -75.64005 40118 ft 531 kts 196°
2026-04-25 07:00 45.89221 -75.66011 40130 ft 531 kts 196°
2026-04-25 07:00 45.81958 -75.68020 40119 ft 533 kts 196°
2026-04-25 07:01 45.74662 -75.70029 40118 ft 533 kts 196°
2026-04-25 07:01 45.67369 -75.72029 40116 ft 533 kts 196°
2026-04-25 07:02 45.60078 -75.74023 40114 ft 533 kts 196°
2026-04-25 07:02 45.52791 -75.76011 40112 ft 532 kts 196°
2026-04-25 07:03 45.45514 -75.77992 40109 ft 532 kts 196°
2026-04-25 07:03 45.38249 -75.79963 40106 ft 531 kts 196°
2026-04-25 07:04 45.31041 -75.81916 40091 ft 530 kts 196°
2026-04-25 07:04 45.23797 -75.83873 40098 ft 529 kts 196°
2026-04-25 07:05 45.16566 -75.85821 40100 ft 529 kts 196°
2026-04-25 07:05 45.09333 -75.87766 40103 ft 528 kts 196°
2026-04-25 07:06 45.02113 -75.89701 40095 ft 527 kts 196°
2026-04-25 07:06 44.94907 -75.91628 40089 ft 527 kts 196°
2026-04-25 07:07 44.87693 -75.93552 40078 ft 527 kts 196°
2026-04-25 07:07 44.80489 -75.95469 40076 ft 526 kts 196°
2026-04-25 07:08 44.73297 -75.97377 40071 ft 526 kts 196°
2026-04-25 07:08 44.66049 -75.98654 40066 ft 530 kts 190°
2026-04-25 07:09 44.58697 -75.99512 40067 ft 530 kts 189°
2026-04-25 07:09 44.51336 -76.00304 40042 ft 530 kts 189°
2026-04-25 07:10 44.43991 -76.01100 40053 ft 529 kts 189°
2026-04-25 07:10 44.36647 -76.01908 40049 ft 531 kts 189°
2026-04-25 07:11 44.29261 -76.02727 40030 ft 532 kts 189°
2026-04-25 07:11 44.21877 -76.03541 40024 ft 532 kts 189°
2026-04-25 07:12 44.14490 -76.04352 40013 ft 532 kts 189°
2026-04-25 07:12 44.03476 -76.05558 40009 ft 531 kts 189°
2026-04-25 07:13 43.96109 -76.06363 40014 ft 530 kts 189°
2026-04-25 07:13 43.88778 -76.07397 40014 ft 528 kts 192°
2026-04-25 07:14 43.81495 -76.08796 40004 ft 528 kts 193°
2026-04-25 07:14 43.74216 -76.10186 39999 ft 528 kts 192°
2026-04-25 07:15 43.66939 -76.11507 39996 ft 527 kts 192°
2026-04-25 07:15 43.59712 -76.12788 39995 ft 527 kts 192°
2026-04-25 07:16 43.52440 -76.14069 39987 ft 526 kts 192°
2026-04-25 07:16 43.45188 -76.15344 39983 ft 523 kts 192°
2026-04-25 07:17 43.37985 -76.16610 39972 ft 521 kts 192°
2026-04-25 07:17 43.30798 -76.17873 39983 ft 521 kts 192°
2026-04-25 07:18 43.23591 -76.19137 39984 ft 520 kts 192°
2026-04-25 07:18 43.16537 -76.21009 39990 ft 510 kts 205°
2026-04-25 07:19 43.10291 -76.25141 39988 ft 498 kts 216°
2026-04-25 07:19 43.04345 -76.30016 39987 ft 497 kts 218°
2026-04-25 07:20 42.98455 -76.34970 39976 ft 497 kts 218°
2026-04-25 07:20 42.92553 -76.39882 39972 ft 496 kts 218°
2026-04-25 07:21 42.86639 -76.44758 39962 ft 496 kts 217°
2026-04-25 07:21 42.80722 -76.49619 39955 ft 496 kts 217°
2026-04-25 07:22 42.74854 -76.54415 39946 ft 493 kts 217°
2026-04-25 07:22 42.68974 -76.59213 39945 ft 492 kts 217°
2026-04-25 07:23 42.63103 -76.64007 39923 ft 492 kts 217°
2026-04-25 07:23 42.57247 -76.68771 39941 ft 490 kts 217°
2026-04-25 07:24 42.51393 -76.73516 39939 ft 490 kts 217°
2026-04-25 07:24 42.45542 -76.78252 39925 ft 490 kts 216°
2026-04-25 07:25 42.39688 -76.82981 39947 ft 489 kts 216°
2026-04-25 07:25 42.33873 -76.87670 39934 ft 488 kts 216°
2026-04-25 07:26 42.28036 -76.92365 39940 ft 487 kts 216°
2026-04-25 07:26 42.22208 -76.97043 39939 ft 487 kts 216°
2026-04-25 07:27 42.16426 -77.01684 39923 ft 486 kts 216°
2026-04-25 07:27 42.10563 -77.06364 39927 ft 486 kts 216°
2026-04-25 07:28 42.04779 -77.10972 39931 ft 486 kts 216°
2026-04-25 07:28 41.98954 -77.15606 39933 ft 486 kts 216°
2026-04-25 07:29 41.93117 -77.20240 39936 ft 486 kts 216°
2026-04-25 07:29 41.87280 -77.24864 39935 ft 486 kts 216°
2026-04-25 07:30 41.81472 -77.29455 39931 ft 484 kts 216°
2026-04-25 07:30 41.75660 -77.34039 39933 ft 484 kts 216°
2026-04-25 07:31 41.69885 -77.38585 39915 ft 484 kts 217°
2026-04-25 07:31 41.64078 -77.43144 39923 ft 483 kts 217°
2026-04-25 07:32 41.58278 -77.47692 39911 ft 483 kts 217°
2026-04-25 07:32 41.52506 -77.52210 39914 ft 483 kts 217°
2026-04-25 07:33 41.46713 -77.56731 39912 ft 482 kts 217°
2026-04-25 07:33 41.41863 -77.60508 39906 ft 482 kts 217°
2026-04-25 07:34 41.36117 -77.64974 39909 ft 480 kts 217°
2026-04-25 07:34 41.30355 -77.69441 39915 ft 479 kts 217°
2026-04-25 07:35 41.25558 -77.73160 39897 ft 479 kts 217°
2026-04-25 07:36 41.22631 -77.75426 39899 ft 479 kts 217°
2026-04-25 07:37 41.16865 -77.79880 39897 ft 479 kts 217°
2026-04-25 07:37 41.11090 -77.84331 39882 ft 480 kts 217°
2026-04-25 07:38 41.05356 -77.88741 39879 ft 479 kts 217°
2026-04-25 07:38 40.99579 -77.93175 39865 ft 479 kts 216°
2026-04-25 07:39 40.93588 -77.97156 39874 ft 490 kts 203°
2026-04-25 07:39 40.90224 -77.98033 39863 ft 499 kts 189°
2026-04-25 07:39 40.86728 -77.97805 39875 ft 509 kts 175°
2026-04-25 07:40 40.79767 -77.95821 39873 ft 513 kts 172°
2026-04-25 07:40 40.72785 -77.93725 39887 ft 516 kts 172°
2026-04-25 07:41 40.65747 -77.91642 39882 ft 517 kts 172°
2026-04-25 07:41 40.58774 -77.89590 39877 ft 517 kts 172°
2026-04-25 07:42 40.51757 -77.87531 39824 ft 514 kts 172°
2026-04-25 07:42 40.48259 -77.86507 39507 ft 514 kts 172°
2026-04-25 07:42 40.44764 -77.85487 38884 ft 516 kts 172°
2026-04-25 07:43 40.41228 -77.84561 37899 ft 517 kts 178°
2026-04-25 07:43 40.37681 -77.84582 37049 ft 505 kts 194°
2026-04-25 07:43 40.34349 -77.85765 36266 ft 491 kts 210°
2026-04-25 07:43 40.31453 -77.87992 35506 ft 476 kts 225°
2026-04-25 07:44 40.29200 -77.91060 34777 ft 462 kts 240°
2026-04-25 07:44 40.27718 -77.94728 34057 ft 452 kts 254°
2026-04-25 07:44 40.26793 -77.98657 33253 ft 452 kts 258°
2026-04-25 07:44 40.26066 -78.02667 32464 ft 453 kts 263°
2026-04-25 07:45 40.25996 -78.06723 31722 ft 452 kts 279°
2026-04-25 07:45 40.26823 -78.10695 30969 ft 453 kts 294°
2026-04-25 07:45 40.28483 -78.14193 30264 ft 454 kts 309°
2026-04-25 07:45 40.30845 -78.16937 29499 ft 456 kts 324°
2026-04-25 07:46 40.33720 -78.18705 28678 ft 460 kts 340°
2026-04-25 07:46 40.36861 -78.19552 27884 ft 462 kts 348°
2026-04-25 07:46 40.40052 -78.20091 27115 ft 461 kts 351°
2026-04-25 07:46 40.43264 -78.20035 26358 ft 466 kts
2026-04-25 07:47 40.46386 -78.18815 25618 ft 472 kts 21°
2026-04-25 07:47 40.49162 -78.16498 24914 ft 477 kts 37°
2026-04-25 07:47 40.51387 -78.13239 24212 ft 482 kts 53°
2026-04-25 07:47 40.52877 -78.09295 23539 ft 486 kts 69°
2026-04-25 07:48 40.53635 -78.05036 22757 ft 485 kts 78°
2026-04-25 07:48 40.54158 -78.00601 21971 ft 482 kts 79°
2026-04-25 07:48 40.54641 -77.96312 21212 ft 478 kts 79°
2026-04-25 07:48 40.55126 -77.92007 20480 ft 474 kts 79°
2026-04-25 07:49 40.55612 -77.87731 19764 ft 470 kts 79°
2026-04-25 07:49 40.56103 -77.83505 19085 ft 465 kts 79°
2026-04-25 07:49 40.56601 -77.79323 18415 ft 460 kts 79°
2026-04-25 07:49 40.57100 -77.75200 17675 ft 455 kts 80°
2026-04-25 07:50 40.57323 -77.71060 16914 ft 452 kts 90°
2026-04-25 07:50 40.56886 -77.67005 16328 ft 444 kts 105°
2026-04-25 07:50 40.55696 -77.63320 15810 ft 433 kts 122°
2026-04-25 07:50 40.53825 -77.60296 15340 ft 422 kts 139°
2026-04-25 07:51 40.51440 -77.58135 14864 ft 411 kts 155°
2026-04-25 07:51 40.48775 -77.56946 14383 ft 400 kts 171°
2026-04-25 07:51 40.46095 -77.56742 14096 ft 387 kts 186°
2026-04-25 07:51 40.43471 -77.57407 13862 ft 384 kts 200°
2026-04-25 07:52 40.40961 -77.58594 13624 ft 383 kts 203°
2026-04-25 07:52 40.38561 -77.60063 13350 ft 379 kts 216°
2026-04-25 07:52 40.36486 -77.62154 13120 ft 374 kts 220°
2026-04-25 07:52 40.34404 -77.64194 12977 ft 373 kts 217°
2026-04-25 07:53 40.32244 -77.66079 12859 ft 372 kts 214°
2026-04-25 07:53 40.30014 -77.67788 12720 ft 372 kts 210°
2026-04-25 07:53 40.27731 -77.69377 12593 ft 372 kts 208°
2026-04-25 07:53 40.25304 -77.70560 12457 ft 373 kts 197°
2026-04-25 07:54 40.22770 -77.71317 12325 ft 373 kts 193°
2026-04-25 07:54 40.20220 -77.71971 12196 ft 373 kts 193°
2026-04-25 07:54 40.17671 -77.72605 12072 ft 372 kts 193°
2026-04-25 07:54 40.15126 -77.73230 12014 ft 371 kts 193°
2026-04-25 07:55 40.12590 -77.73847 12012 ft 371 kts 193°
2026-04-25 07:55 40.10049 -77.74443 12010 ft 371 kts 191°
2026-04-25 07:55 40.07459 -77.74555 12007 ft 375 kts 175°
2026-04-25 07:55 40.04884 -77.73953 12003 ft 376 kts 170°
2026-04-25 07:56 40.02330 -77.73206 12007 ft 377 kts 169°
2026-04-25 07:56 39.99779 -77.72455 12002 ft 377 kts 169°
2026-04-25 07:56 39.97223 -77.71710 12002 ft 377 kts 169°
2026-04-25 07:56 39.94693 -77.70977 12001 ft 377 kts 169°
2026-04-25 07:57 39.92099 -77.70229 11997 ft 377 kts 169°
2026-04-25 07:57 39.89538 -77.69495 11993 ft 375 kts 170°
2026-04-25 07:57 39.87087 -77.68788 11989 ft 356 kts 169°
2026-04-25 07:57 39.84740 -77.68108 11986 ft 336 kts 170°
2026-04-25 07:58 39.82521 -77.67468 11983 ft 317 kts 170°
2026-04-25 07:58 39.80414 -77.66863 11983 ft 304 kts 170°
2026-04-25 07:58 39.78350 -77.66274 11986 ft 304 kts 170°
2026-04-25 07:58 39.76280 -77.65684 11987 ft 304 kts 170°
2026-04-25 07:59 39.74214 -77.65095 11987 ft 304 kts 170°
2026-04-25 07:59 39.72140 -77.64557 11988 ft 304 kts 172°
2026-04-25 07:59 39.70084 -77.64099 11987 ft 303 kts 173°
2026-04-25 07:59 39.68002 -77.63637 11987 ft 304 kts 173°
2026-04-25 08:00 39.65919 -77.63168 11985 ft 303 kts 173°
2026-04-25 08:00 39.63846 -77.62696 11927 ft 300 kts 173°
2026-04-25 08:00 39.61790 -77.62225 11436 ft 301 kts 173°
2026-04-25 08:00 39.59717 -77.61750 10933 ft 303 kts 173°
2026-04-25 08:01 39.57638 -77.61273 10492 ft 302 kts 173°
2026-04-25 08:01 39.55572 -77.60799 10083 ft 301 kts 173°
2026-04-25 08:01 39.53516 -77.60327 9679 ft 300 kts 173°
2026-04-25 08:01 39.51469 -77.59804 9214 ft 300 kts 168°
2026-04-25 08:02 39.49580 -77.58633 8734 ft 304 kts 148°
2026-04-25 08:02 39.47882 -77.56999 8233 ft 302 kts 145°
2026-04-25 08:02 39.46240 -77.55354 7626 ft 294 kts 145°
2026-04-25 08:02 39.44629 -77.53744 7233 ft 292 kts 145°
2026-04-25 08:03 39.43035 -77.52162 6879 ft 291 kts 145°
2026-04-25 08:03 39.41430 -77.50576 6521 ft 289 kts 145°
2026-04-25 08:03 39.39838 -77.49006 6152 ft 287 kts 145°
2026-04-25 08:03 39.38252 -77.47444 5775 ft 286 kts 145°
2026-04-25 08:04 39.37085 -77.46297 5501 ft 284 kts 145°
2026-04-25 08:04 39.35500 -77.44739 5158 ft 284 kts 145°
2026-04-25 08:04 39.33947 -77.43215 5022 ft 279 kts 145°
2026-04-25 08:04 39.32393 -77.41693 5013 ft 281 kts 145°
2026-04-25 08:05 39.30835 -77.40167 5017 ft 281 kts 145°
2026-04-25 08:05 39.29280 -77.38643 5017 ft 280 kts 145°
2026-04-25 08:05 39.27717 -77.37139 5014 ft 280 kts 148°
2026-04-25 08:05 39.25970 -77.36116 4932 ft 275 kts 171°
2026-04-25 08:06 39.24085 -77.35884 4769 ft 271 kts 181°
2026-04-25 08:06 39.22200 -77.35854 4589 ft 270 kts 182°
2026-04-25 08:06 39.20320 -77.35830 4388 ft 269 kts 182°
2026-04-25 08:06 39.18449 -77.35796 4212 ft 267 kts 181°
2026-04-25 08:07 39.16599 -77.35759 4057 ft 265 kts 181°
2026-04-25 08:07 39.14756 -77.35740 4021 ft 265 kts 182°
2026-04-25 08:07 39.12917 -77.35743 4020 ft 264 kts 182°
2026-04-25 08:07 39.11077 -77.35744 4017 ft 264 kts 182°
2026-04-25 08:08 39.09258 -77.35746 4020 ft 265 kts 182°
2026-04-25 08:08 39.07409 -77.35743 4002 ft 266 kts 182°
2026-04-25 08:08 39.05556 -77.35738 3997 ft 266 kts 182°
2026-04-25 08:08 39.03703 -77.35734 3997 ft 266 kts 182°
2026-04-25 08:09 39.01852 -77.35729 3998 ft 266 kts 182°
2026-04-25 08:09 39.00001 -77.35724 3998 ft 266 kts 182°
2026-04-25 08:09 38.98148 -77.35719 3992 ft 266 kts 182°
2026-04-25 08:09 38.96300 -77.35715 3999 ft 266 kts 182°
2026-04-25 08:10 38.94446 -77.35710 3998 ft 266 kts 182°
2026-04-25 08:10 38.92598 -77.35706 3997 ft 266 kts 182°
2026-04-25 08:10 38.90746 -77.35701 4002 ft 266 kts 182°
2026-04-25 08:10 38.88899 -77.35722 3991 ft 266 kts 183°
2026-04-25 08:11 38.87071 -77.35766 3998 ft 266 kts 183°
2026-04-25 08:11 38.85192 -77.35812 3990 ft 266 kts 183°
2026-04-25 08:11 38.83367 -77.35853 3989 ft 266 kts 183°
2026-04-25 08:11 38.81510 -77.35894 3994 ft 266 kts 183°
2026-04-25 08:12 38.79656 -77.35934 3993 ft 266 kts 183°
2026-04-25 08:12 38.77808 -77.35974 3994 ft 266 kts 183°
2026-04-25 08:12 38.75950 -77.36013 3995 ft 266 kts 183°
2026-04-25 08:12 38.74095 -77.36053 4004 ft 267 kts 183°
2026-04-25 08:13 38.72241 -77.36093 3997 ft 266 kts 183°
2026-04-25 08:13 38.70383 -77.36133 3996 ft 267 kts 183°
2026-04-25 08:13 38.68529 -77.36172 3995 ft 264 kts 183°
2026-04-25 08:14 38.65588 -77.37828 3985 ft 219 kts 238°
2026-04-25 08:14 38.65107 -77.39630 4006 ft 215 kts 264°
2026-04-25 08:14 38.65213 -77.41521 3997 ft 216 kts 289°
2026-04-25 08:14 38.66098 -77.43032 3987 ft 213 kts 324°
2026-04-25 08:15 38.67448 -77.43784 4002 ft 213 kts 344°
2026-04-25 08:15 38.68915 -77.43988 4008 ft 217 kts 356°
2026-04-25 08:15 38.70430 -77.43966 4018 ft 218 kts 358°
2026-04-25 08:15 38.71945 -77.43942 4018 ft 218 kts 357°
2026-04-25 08:16 38.73453 -77.43925 4058 ft 216 kts 358°
2026-04-25 08:16 38.74955 -77.43905 3830 ft 215 kts 358°
2026-04-25 08:16 38.76437 -77.43882 3525 ft 211 kts 357°
2026-04-25 08:16 38.77876 -77.43861 3191 ft 202 kts 357°
2026-04-25 08:17 38.79260 -77.43840 2908 ft 196 kts 358°
2026-04-25 08:17 38.80619 -77.43821 2643 ft 195 kts 358°
2026-04-25 08:17 38.81970 -77.43801 2379 ft 188 kts 359°
2026-04-25 08:17 38.83233 -77.43782 2137 ft 177 kts 359°
2026-04-25 08:18 38.84453 -77.43765 1909 ft 174 kts
2026-04-25 08:18 38.85667 -77.43746 1682 ft 174 kts
2026-04-25 08:18 38.86874 -77.43726 1438 ft 172 kts
2026-04-25 08:18 38.88124 -77.43702 1258 ft 182 kts
2026-04-25 08:19 38.89331 -77.43666 1051 ft 171 kts
2026-04-25 08:19 38.90515 -77.43671 760 ft 165 kts
2026-04-25 08:19 38.91612 -77.43661 527 ft 151 kts
2026-04-25 08:19 38.92295 -77.43647 380 ft 144 kts
2026-04-25 08:20 38.93483 -77.43625 310 ft 101 kts
2026-04-25 08:20 38.94006 -77.43620 310 ft 49 kts
2026-04-25 08:20 38.94214 -77.43617 310 ft 25 kts 359°
2026-04-25 08:20 38.94329 -77.43627 311 ft 24 kts 347°
2026-04-25 08:21 38.94488 -77.43710 307 ft 23 kts 330°
2026-04-25 08:21 38.94578 -77.43775 304 ft 0 kts 331°
2026-04-25 08:22 38.94597 -77.43788 302 ft 13 kts 331°
2026-04-25 08:22 38.94693 -77.43848 303 ft 15 kts 329°
2026-04-25 08:22 38.94721 -77.44023 298 ft 18 kts 271°
2026-04-25 08:23 38.94723 -77.44135 301 ft 19 kts 270°
2026-04-25 08:23 38.94726 -77.44322 302 ft 22 kts 271°
2026-04-25 08:23 38.94725 -77.44450 302 ft 9 kts 270°
2026-04-25 08:23 38.94725 -77.44529 302 ft 6 kts 269°
2026-04-25 08:24 38.94725 -77.44553 302 ft 0 kts 271°
2026-04-25 08:27 38.94728 -77.44581 302 ft 4 kts 287°
2026-04-25 08:27 38.94745 -77.44588 302 ft 7 kts 350°
2026-04-25 08:27 38.94778 -77.44581 301 ft 3 kts 13°
2026-04-25 08:28 38.94802 -77.44574 302 ft 3 kts 14°
2026-04-25 08:28 38.94815 -77.44570 301 ft 0 kts 14°